DAL8 KLAX-RJTT

Flight info

Callsign DAL8
Flight time N/A
Altitude 36000
Route SUMMR2 MCKEY DCT LIBBO DCT BRINY DCT BOARS DCT AMAKR DCT REDWD DCT 42N130W/N0485F380 47N140W 49N150W 50N160W 50N170W/N0493F400 49N180E 46N170E 42N160E KALNA OTR5 ADNAP Y807 POLIX
Aircraft A359/H-SDE2E3GHIJ3J4J5LM1ORWXY/LB1D1

Departure

Time 2026-05-07 19:13
Airport Los Angeles International Airport (KLAX)

Arrival

Time N/A
Airport Tokyo Haneda International Airport (RJTT)
Time Latitude Longitude Altitude Speed Heading
2026-05-07 18:44 33.94727 -118.40643 132 ft 0 kts 239°
2026-05-07 19:03 33.94729 -118.40639 132 ft 2 kts 239°
2026-05-07 19:03 33.94736 -118.40626 134 ft 2 kts 245°
2026-05-07 19:03 33.94739 -118.40611 132 ft 2 kts 270°
2026-05-07 19:04 33.94738 -118.40596 132 ft 2 kts 293°
2026-05-07 19:04 33.94731 -118.40583 123 ft 2 kts 329°
2026-05-07 19:04 33.94719 -118.40576 129 ft 2 kts 349°
2026-05-07 19:04 33.94713 -118.40575 132 ft 0 kts 352°
2026-05-07 19:08 33.94721 -118.40577 129 ft 4 kts 352°
2026-05-07 19:08 33.94755 -118.40582 125 ft 6 kts 351°
2026-05-07 19:08 33.94800 -118.40592 127 ft 7 kts 348°
2026-05-07 19:09 33.94847 -118.40588 127 ft 7 kts 30°
2026-05-07 19:09 33.94869 -118.40540 124 ft 7 kts 75°
2026-05-07 19:09 33.94877 -118.40474 124 ft 9 kts 82°
2026-05-07 19:09 33.94886 -118.40396 132 ft 10 kts 83°
2026-05-07 19:10 33.94895 -118.40307 132 ft 11 kts 83°
2026-05-07 19:10 33.94905 -118.40206 121 ft 13 kts 83°
2026-05-07 19:10 33.94916 -118.40095 124 ft 14 kts 83°
2026-05-07 19:10 33.94927 -118.39992 132 ft 9 kts 81°
2026-05-07 19:11 33.94947 -118.39936 125 ft 7 kts 51°
2026-05-07 19:11 33.94991 -118.39912 121 ft 7 kts
2026-05-07 19:11 33.95032 -118.39933 126 ft 5 kts 313°
2026-05-07 19:11 33.95039 -118.39954 120 ft 3 kts 285°
2026-05-07 19:12 33.95038 -118.39984 122 ft 4 kts 264°
2026-05-07 19:12 33.95038 -118.39991 123 ft 0 kts 264°
2026-05-07 19:12 33.95037 -118.39997 122 ft 7 kts 264°
2026-05-07 19:12 33.95010 -118.40264 132 ft 62 kts 262°
2026-05-07 19:13 33.94934 -118.41004 132 ft 115 kts 263°
2026-05-07 19:13 33.94816 -118.42151 141 ft 159 kts 263°
2026-05-07 19:13 33.94683 -118.43450 703 ft 156 kts 262°
2026-05-07 19:13 33.94556 -118.44788 1188 ft 165 kts 263°
2026-05-07 19:14 33.94434 -118.46228 1477 ft 181 kts 263°
2026-05-07 19:14 33.94317 -118.47809 1775 ft 198 kts 266°
2026-05-07 19:14 33.94265 -118.49518 2052 ft 216 kts 269°
2026-05-07 19:14 33.94215 -118.51415 2308 ft 237 kts 268°
2026-05-07 19:15 33.94074 -118.53473 2670 ft 252 kts 265°
2026-05-07 19:15 33.93890 -118.55600 3222 ft 258 kts 265°
2026-05-07 19:15 33.93706 -118.57766 3799 ft 262 kts 265°
2026-05-07 19:15 33.93526 -118.59959 4406 ft 263 kts 265°
2026-05-07 19:16 33.93349 -118.62158 5024 ft 266 kts 264°
2026-05-07 19:16 33.93171 -118.64396 5558 ft 270 kts 264°
2026-05-07 19:16 33.92997 -118.66648 6187 ft 271 kts 265°
2026-05-07 19:16 33.92820 -118.68918 6772 ft 274 kts 265°
2026-05-07 19:17 33.92641 -118.71209 7352 ft 277 kts 265°
2026-05-07 19:17 33.92458 -118.73545 7898 ft 283 kts 265°
2026-05-07 19:17 33.92272 -118.75921 8500 ft 288 kts 265°
2026-05-07 19:17 33.92084 -118.78332 9136 ft 292 kts 265°
2026-05-07 19:18 33.91892 -118.80780 9774 ft 296 kts 266°
2026-05-07 19:18 33.91733 -118.83246 10266 ft 304 kts 270°
2026-05-07 19:18 33.91752 -118.85857 10544 ft 320 kts 273°
2026-05-07 19:18 33.91839 -118.88609 10807 ft 336 kts 274°
2026-05-07 19:19 33.91935 -118.91492 11074 ft 351 kts 273°
2026-05-07 19:19 33.92029 -118.94494 11351 ft 366 kts 273°
2026-05-07 19:19 33.92123 -118.97607 11630 ft 378 kts 273°
2026-05-07 19:19 33.92337 -119.00791 12028 ft 384 kts 282°
2026-05-07 19:20 33.93292 -119.03781 12524 ft 384 kts 301°
2026-05-07 19:20 33.94684 -119.06546 13049 ft 387 kts 304°
2026-05-07 19:20 33.96134 -119.09295 13532 ft 391 kts 304°
2026-05-07 19:20 33.97594 -119.12076 14042 ft 394 kts 304°
2026-05-07 19:21 33.99055 -119.14882 14494 ft 397 kts 304°
2026-05-07 19:21 34.00595 -119.17654 14946 ft 398 kts 310°
2026-05-07 19:21 34.02564 -119.19980 15382 ft 397 kts 324°
2026-05-07 19:21 34.04765 -119.21928 15863 ft 398 kts 327°
2026-05-07 19:22 34.07065 -119.23882 16339 ft 401 kts 327°
2026-05-07 19:22 34.09326 -119.25806 16783 ft 404 kts 327°
2026-05-07 19:22 34.11628 -119.27775 17232 ft 408 kts 327°
2026-05-07 19:22 34.13951 -119.29767 17712 ft 410 kts 327°
2026-05-07 19:23 34.16281 -119.31770 18194 ft 413 kts 327°
2026-05-07 19:23 34.18631 -119.33795 18630 ft 416 kts 326°
2026-05-07 19:23 34.20999 -119.35836 19053 ft 419 kts 326°
2026-05-07 19:23 34.23374 -119.37885 19509 ft 421 kts 326°
2026-05-07 19:24 34.25760 -119.39946 19949 ft 423 kts 326°
2026-05-07 19:24 34.28162 -119.42022 20389 ft 426 kts 326°
2026-05-07 19:24 34.28978 -119.42727 20534 ft 426 kts 326°
2026-05-07 19:25 34.31420 -119.44841 20982 ft 429 kts 326°
2026-05-07 19:25 34.33854 -119.46948 21421 ft 431 kts 326°
2026-05-07 19:25 34.36302 -119.49069 21873 ft 434 kts 326°
2026-05-07 19:25 34.38761 -119.51203 22313 ft 437 kts 326°
2026-05-07 19:26 34.41137 -119.53520 22752 ft 441 kts 318°
2026-05-07 19:26 34.43255 -119.56239 23231 ft 445 kts 312°
2026-05-07 19:26 34.45280 -119.59094 23664 ft 448 kts 311°
2026-05-07 19:26 34.47277 -119.61942 24053 ft 450 kts 311°
2026-05-07 19:27 34.49312 -119.64841 24434 ft 453 kts 312°
2026-05-07 19:27 34.51356 -119.67752 24866 ft 455 kts 312°
2026-05-07 19:27 34.53414 -119.70684 25277 ft 456 kts 312°
2026-05-07 19:27 34.55479 -119.73622 25699 ft 459 kts 311°
2026-05-07 19:28 34.57552 -119.76575 26076 ft 461 kts 311°
2026-05-07 19:28 34.59636 -119.79545 26489 ft 463 kts 311°
2026-05-07 19:28 34.61729 -119.82529 26868 ft 465 kts 311°
2026-05-07 19:28 34.63833 -119.85532 27307 ft 466 kts 311°
2026-05-07 19:29 34.65944 -119.88547 27711 ft 468 kts 311°
2026-05-07 19:29 34.68032 -119.91532 28076 ft 471 kts 311°
2026-05-07 19:29 34.70154 -119.94570 28445 ft 472 kts 311°
2026-05-07 19:29 34.72288 -119.97626 28781 ft 475 kts 311°
2026-05-07 19:30 34.74432 -120.00699 29075 ft 479 kts 311°
2026-05-07 19:30 34.76592 -120.03798 29399 ft 481 kts 311°
2026-05-07 19:30 34.78759 -120.06909 29758 ft 482 kts 311°
2026-05-07 19:30 34.80931 -120.10031 30098 ft 484 kts 311°
2026-05-07 19:31 34.83108 -120.13163 30386 ft 485 kts 311°
2026-05-07 19:31 34.85287 -120.16302 30741 ft 485 kts 311°
2026-05-07 19:31 34.87464 -120.19439 31024 ft 486 kts 311°
2026-05-07 19:31 34.89641 -120.22578 31352 ft 485 kts 311°
2026-05-07 19:32 34.91821 -120.25725 31670 ft 485 kts 311°
2026-05-07 19:32 34.93992 -120.28864 32051 ft 483 kts 311°
2026-05-07 19:32 34.96157 -120.31996 32425 ft 481 kts 311°
2026-05-07 19:32 34.98310 -120.35113 32792 ft 479 kts 311°
2026-05-07 19:33 35.00426 -120.38180 33137 ft 478 kts 311°
2026-05-07 19:33 35.02565 -120.41281 33510 ft 475 kts 311°
2026-05-07 19:33 35.04678 -120.44350 33993 ft 471 kts 311°
2026-05-07 19:33 35.06788 -120.47415 34225 ft 471 kts 311°
2026-05-07 19:34 35.08894 -120.50478 34457 ft 471 kts 311°
2026-05-07 19:34 35.10995 -120.53535 34678 ft 470 kts 311°
2026-05-07 19:34 35.13098 -120.56599 34933 ft 469 kts 311°
2026-05-07 19:34 35.15190 -120.59649 35188 ft 467 kts 311°
2026-05-07 19:35 35.17278 -120.62697 35412 ft 466 kts 311°
2026-05-07 19:35 35.19357 -120.65732 35632 ft 465 kts 311°
2026-05-07 19:35 35.21435 -120.68770 35770 ft 466 kts 311°
2026-05-07 19:35 35.23515 -120.71814 35894 ft 467 kts 311°
2026-05-07 19:36 35.25600 -120.74866 36055 ft 467 kts 311°
2026-05-07 19:36 35.27690 -120.77929 36088 ft 471 kts 311°
2026-05-07 19:36 35.31868 -120.84060 36095 ft 472 kts 311°
2026-05-07 19:37 35.36068 -120.90237 36113 ft 472 kts 311°
2026-05-07 19:37 35.40279 -120.96438 36113 ft 473 kts 310°
2026-05-07 19:38 35.44483 -121.02642 36126 ft 472 kts 310°
2026-05-07 19:38 35.48676 -121.08841 36130 ft 471 kts 310°
2026-05-07 19:39 35.52911 -121.14988 36130 ft 472 kts 311°
2026-05-07 19:39 35.56474 -121.20080 36129 ft 473 kts 311°
2026-05-07 19:40 35.60762 -121.26226 36126 ft 473 kts 311°
2026-05-07 19:40 35.65714 -121.33369 36132 ft 472 kts 311°
2026-05-07 19:41 35.69255 -121.38494 36132 ft 473 kts 311°
2026-05-07 19:41 35.73514 -121.44669 36132 ft 473 kts 311°
2026-05-07 19:42 35.77772 -121.50854 36135 ft 473 kts 311°
2026-05-07 19:42 35.82026 -121.57041 36139 ft 473 kts 310°
2026-05-07 19:43 35.86279 -121.63240 36138 ft 474 kts 310°
2026-05-07 19:43 35.90531 -121.69450 36143 ft 474 kts 310°
2026-05-07 19:44 35.94779 -121.75663 36142 ft 474 kts 310°
2026-05-07 19:44 35.99191 -121.81651 36146 ft 474 kts 318°
2026-05-07 19:45 36.04652 -121.86212 36148 ft 474 kts 330°
2026-05-07 19:45 36.10509 -121.89983 36150 ft 475 kts 333°
2026-05-07 19:46 36.16424 -121.93629 36154 ft 475 kts 333°
2026-05-07 19:46 36.22335 -121.97288 36160 ft 475 kts 332°
2026-05-07 19:47 36.28237 -122.00979 36159 ft 475 kts 332°
2026-05-07 19:47 36.34141 -122.04690 36171 ft 476 kts 332°
2026-05-07 19:48 36.40051 -122.08411 36176 ft 477 kts 332°
2026-05-07 19:48 36.45963 -122.12139 36182 ft 476 kts 332°
2026-05-07 19:49 36.51837 -122.15850 36183 ft 476 kts 332°
2026-05-07 19:49 36.57747 -122.19594 36183 ft 477 kts 332°
2026-05-07 19:50 36.63673 -122.23349 36181 ft 477 kts 332°
2026-05-07 19:50 36.69591 -122.27104 36181 ft 477 kts 332°
2026-05-07 19:51 36.75509 -122.30867 36181 ft 478 kts 332°
2026-05-07 19:51 36.81430 -122.34643 36179 ft 478 kts 332°
2026-05-07 19:52 36.87318 -122.38402 36171 ft 479 kts 332°
2026-05-07 19:52 36.93260 -122.42205 36175 ft 480 kts 331°
2026-05-07 19:53 36.99198 -122.46007 36173 ft 479 kts 331°
2026-05-07 19:53 37.05140 -122.49817 36174 ft 480 kts 331°
2026-05-07 19:54 37.11100 -122.53649 36181 ft 480 kts 331°
2026-05-07 19:54 37.17048 -122.57480 36183 ft 481 kts 331°
2026-05-07 19:55 37.23007 -122.61327 36184 ft 482 kts 332°
2026-05-07 19:55 37.28950 -122.65161 36184 ft 484 kts 331°
2026-05-07 19:56 37.35155 -122.68495 36188 ft 485 kts 336°
2026-05-07 19:56 37.41427 -122.71649 36182 ft 485 kts 337°
2026-05-07 19:57 37.47705 -122.74768 36184 ft 485 kts 337°
2026-05-07 19:57 37.53985 -122.77900 36185 ft 485 kts 337°
2026-05-07 19:58 37.60220 -122.81028 36182 ft 485 kts 336°
2026-05-07 19:58 37.66492 -122.84182 36181 ft 485 kts 336°
2026-05-07 19:59 37.72766 -122.87342 36181 ft 485 kts 337°
2026-05-07 19:59 37.79040 -122.90504 36177 ft 486 kts 336°
2026-05-07 20:00 37.85329 -122.93682 36176 ft 487 kts 337°
2026-05-07 20:00 37.91590 -122.96853 36179 ft 487 kts 336°
2026-05-07 20:01 37.97886 -123.00043 36176 ft 487 kts 336°
2026-05-07 20:01 38.04177 -123.03237 36177 ft 487 kts 336°
2026-05-07 20:02 38.10476 -123.06449 36176 ft 487 kts 336°
2026-05-07 20:02 38.16733 -123.09642 36173 ft 487 kts 336°
2026-05-07 20:03 38.22949 -123.13077 36169 ft 486 kts 329°
2026-05-07 20:03 38.28755 -123.17462 36169 ft 486 kts 327°
2026-05-07 20:04 38.34489 -123.22027 36165 ft 486 kts 326°
2026-05-07 20:04 38.40211 -123.26636 36174 ft 486 kts 326°
2026-05-07 20:05 38.45935 -123.31242 36162 ft 486 kts 327°
2026-05-07 20:05 38.51663 -123.35844 36159 ft 486 kts 327°
2026-05-07 20:06 38.57390 -123.40448 36162 ft 487 kts 327°
2026-05-07 20:06 38.63122 -123.45063 36162 ft 487 kts 326°
2026-05-07 20:07 38.68808 -123.49649 36163 ft 486 kts 326°
2026-05-07 20:07 38.74531 -123.54278 36166 ft 486 kts 326°
2026-05-07 20:08 38.80247 -123.58911 36165 ft 486 kts 326°
2026-05-07 20:08 38.85963 -123.63554 36159 ft 486 kts 327°
2026-05-07 20:09 38.91679 -123.68204 36158 ft 486 kts 326°
2026-05-07 20:10 38.99630 -123.76171 36164 ft 484 kts 309°
2026-05-07 20:10 39.03252 -123.83425 36169 ft 482 kts 297°
2026-05-07 20:11 39.06241 -123.91149 36177 ft 482 kts 295°
2026-05-07 20:11 39.09128 -123.98933 36180 ft 483 kts 294°
2026-05-07 20:12 39.12031 -124.06730 36181 ft 483 kts 295°
2026-05-07 20:12 39.14935 -124.14468 36187 ft 483 kts 295°
2026-05-07 20:13 39.17857 -124.22245 36191 ft 482 kts 295°
2026-05-07 20:13 39.20773 -124.30029 36190 ft 482 kts 295°
2026-05-07 20:14 39.23684 -124.37824 36192 ft 483 kts 295°
2026-05-07 20:14 39.26592 -124.45633 36191 ft 482 kts 295°
2026-05-07 20:15 39.29492 -124.53442 36192 ft 481 kts 294°
2026-05-07 20:15 39.32381 -124.61240 36193 ft 482 kts 295°
2026-05-07 20:16 39.35273 -124.69066 36197 ft 483 kts 295°
2026-05-07 20:16 39.38155 -124.76895 36199 ft 481 kts 295°
2026-05-07 20:17 39.41026 -124.84706 36197 ft 480 kts 295°
2026-05-07 20:17 39.43867 -124.92456 36204 ft 481 kts 295°
2026-05-07 20:18 39.46725 -125.00271 36201 ft 482 kts 295°
2026-05-07 20:18 39.49587 -125.08125 36200 ft 481 kts 295°
2026-05-07 20:19 39.52435 -125.15957 36198 ft 479 kts 295°
2026-05-07 20:19 39.55271 -125.23775 36206 ft 480 kts 295°
2026-05-07 20:20 39.58102 -125.31601 36205 ft 480 kts 295°
2026-05-07 20:20 39.60932 -125.39447 36205 ft 480 kts 295°
2026-05-07 20:21 39.63754 -125.47294 36205 ft 478 kts 295°
2026-05-07 20:21 39.66558 -125.55109 36208 ft 478 kts 295°
2026-05-07 20:22 39.69362 -125.62943 36207 ft 477 kts 296°
2026-05-07 20:22 39.72125 -125.70684 36208 ft 475 kts 295°
2026-05-07 20:23 39.74899 -125.78477 36209 ft 475 kts 295°
2026-05-07 20:23 39.77668 -125.86278 36208 ft 475 kts 295°
2026-05-07 20:24 39.80428 -125.94076 36214 ft 474 kts 296°
2026-05-07 20:24 39.83178 -126.01865 36216 ft 474 kts 295°
2026-05-07 20:25 39.85925 -126.09665 36215 ft 474 kts 295°
2026-05-07 20:25 39.88664 -126.17464 36215 ft 473 kts 296°
2026-05-07 20:26 39.91373 -126.25201 36215 ft 471 kts 296°
2026-05-07 20:26 39.94074 -126.32937 36219 ft 468 kts 296°
2026-05-07 20:27 39.96765 -126.40660 36216 ft 468 kts 296°
2026-05-07 20:27 39.99533 -126.48341 36219 ft 466 kts 300°
2026-05-07 20:28 40.03193 -126.55282 36219 ft 464 kts 308°
2026-05-07 20:28 40.07156 -126.61944 36222 ft 465 kts 309°
2026-05-07 20:29 40.11170 -126.68563 36222 ft 464 kts 309°
2026-05-07 20:29 40.15168 -126.75186 36222 ft 464 kts 309°
2026-05-07 20:30 40.18483 -126.80711 36222 ft 464 kts 308°
2026-05-07 20:30 40.22462 -126.87366 36223 ft 464 kts 308°
2026-05-07 20:31 40.26438 -126.94034 36226 ft 464 kts 308°
2026-05-07 20:31 40.30414 -127.00715 36224 ft 464 kts 308°
2026-05-07 20:32 40.34381 -127.07395 36226 ft 465 kts 308°
2026-05-07 20:32 40.38322 -127.14045 36227 ft 464 kts 308°
2026-05-07 20:33 40.42288 -127.20750 36229 ft 464 kts 308°
2026-05-07 20:33 40.46246 -127.27455 36225 ft 464 kts 307°
2026-05-07 20:34 40.50198 -127.34166 36229 ft 464 kts 307°
2026-05-07 20:34 40.54149 -127.40891 36230 ft 464 kts 307°
2026-05-07 20:35 40.58094 -127.47619 36224 ft 464 kts 307°
2026-05-07 20:35 40.62037 -127.54357 36227 ft 464 kts 307°
2026-05-07 20:36 40.65944 -127.61050 36228 ft 464 kts 307°
2026-05-07 20:36 40.69876 -127.67802 36230 ft 464 kts 307°
2026-05-07 20:37 40.73801 -127.74554 36233 ft 464 kts 307°
2026-05-07 20:37 40.77722 -127.81314 36233 ft 463 kts 307°
2026-05-07 20:38 40.81634 -127.88074 36235 ft 463 kts 307°
2026-05-07 20:38 40.85542 -127.94840 36235 ft 463 kts 306°
2026-05-07 20:39 40.89449 -128.01621 36233 ft 463 kts 306°
2026-05-07 20:39 40.93349 -128.08406 36238 ft 463 kts 306°
2026-05-07 20:40 40.97219 -128.15151 36240 ft 463 kts 306°
2026-05-07 20:40 41.01112 -128.21951 36235 ft 463 kts 306°
2026-05-07 20:41 41.04999 -128.28758 36233 ft 463 kts 306°
2026-05-07 20:41 41.08882 -128.35571 36240 ft 463 kts 305°
2026-05-07 20:42 41.12763 -128.42395 36238 ft 463 kts 305°
2026-05-07 20:42 41.16633 -128.49218 36238 ft 463 kts 305°
2026-05-07 20:43 41.20501 -128.56051 36246 ft 463 kts 305°
2026-05-07 20:43 41.24339 -128.62844 36240 ft 462 kts 305°
2026-05-07 20:44 41.28194 -128.69684 36241 ft 462 kts 305°
2026-05-07 20:44 41.32048 -128.76539 36241 ft 462 kts 305°
2026-05-07 20:45 41.35892 -128.83388 36247 ft 462 kts 304°
2026-05-07 20:45 41.39727 -128.90239 36243 ft 461 kts 304°
2026-05-07 20:46 41.43562 -128.97106 36240 ft 461 kts 304°
2026-05-07 20:46 41.47387 -129.03968 36241 ft 461 kts 304°
2026-05-07 20:47 41.51207 -129.10838 36247 ft 461 kts 304°
2026-05-07 20:47 41.54996 -129.17668 36246 ft 461 kts 304°
2026-05-07 20:48 41.58806 -129.24551 36242 ft 461 kts 304°
2026-05-07 20:48 41.62611 -129.31441 36243 ft 461 kts 304°
2026-05-07 20:49 41.66418 -129.38348 36243 ft 461 kts 304°
2026-05-07 20:49 41.70214 -129.45253 36251 ft 461 kts 303°
2026-05-07 20:50 41.74007 -129.52167 36243 ft 460 kts 303°
2026-05-07 20:50 41.77792 -129.59082 36244 ft 460 kts 303°
2026-05-07 20:51 41.81577 -129.66003 36240 ft 460 kts 303°
2026-05-07 20:51 41.85354 -129.72939 36239 ft 461 kts 303°
2026-05-07 20:52 41.89132 -129.79895 36240 ft 461 kts 303°
2026-05-07 20:52 41.92910 -129.86862 36241 ft 461 kts 303°
2026-05-07 20:53 41.96660 -129.93791 36239 ft 461 kts 302°
2026-05-07 20:53 42.00421 -130.00756 36604 ft 457 kts 302°
2026-05-07 20:53 42.02333 -130.04167 36964 ft 454 kts 304°
2026-05-07 20:54 42.04288 -130.07487 37264 ft 451 kts 305°
2026-05-07 20:54 42.06255 -130.10764 37505 ft 450 kts 305°
2026-05-07 20:54 42.08222 -130.14038 37730 ft 448 kts 304°
2026-05-07 20:54 42.10176 -130.17307 37856 ft 449 kts 304°
2026-05-07 20:55 42.12122 -130.20591 37999 ft 448 kts 304°
2026-05-07 20:55 42.14061 -130.23883 38176 ft 447 kts 303°
2026-05-07 20:55 42.15995 -130.27181 38237 ft 449 kts 303°
2026-05-07 20:56 42.19873 -130.33826 38235 ft 451 kts 303°
2026-05-07 20:56 42.23730 -130.40443 38234 ft 452 kts 303°
2026-05-07 20:57 42.27622 -130.47133 38235 ft 453 kts 303°
2026-05-07 20:57 42.31510 -130.53830 38236 ft 453 kts 303°
2026-05-07 20:58 42.35397 -130.60538 38242 ft 454 kts 303°
2026-05-07 20:58 42.39294 -130.67282 38234 ft 456 kts 303°
2026-05-07 20:59 42.43198 -130.74053 38231 ft 456 kts 302°
2026-05-07 20:59 42.47097 -130.80829 38226 ft 456 kts 302°
2026-05-07 21:00 42.50993 -130.87615 38228 ft 457 kts 302°
2026-05-07 21:00 42.54894 -130.94423 38220 ft 457 kts 302°
2026-05-07 21:01 42.58789 -131.01240 38227 ft 457 kts 302°
2026-05-07 21:01 42.62680 -131.08065 38232 ft 457 kts 302°
2026-05-07 21:02 42.66574 -131.14912 38212 ft 458 kts 302°
2026-05-07 21:02 42.70464 -131.21767 38216 ft 458 kts 302°
2026-05-07 21:03 42.74353 -131.28635 38234 ft 458 kts 301°
2026-05-07 21:03 42.78216 -131.35474 38217 ft 460 kts 301°
2026-05-07 21:04 42.82112 -131.42386 38210 ft 460 kts 301°
2026-05-07 21:04 42.86004 -131.49308 38209 ft 460 kts 301°
2026-05-07 21:05 42.89895 -131.56244 38209 ft 460 kts 301°
2026-05-07 21:05 42.93779 -131.63184 38208 ft 460 kts 301°
2026-05-07 21:06 42.97657 -131.70128 38209 ft 460 kts 301°
2026-05-07 21:06 43.01533 -131.77086 38209 ft 460 kts 300°
2026-05-07 21:07 43.05416 -131.84073 38203 ft 462 kts 300°
2026-05-07 21:07 43.09297 -131.91075 38203 ft 462 kts 300°
2026-05-07 21:08 43.13146 -131.98033 38197 ft 462 kts 300°
2026-05-07 21:08 43.17025 -132.05061 38197 ft 463 kts 300°
2026-05-07 21:09 43.20905 -132.12112 38198 ft 463 kts 300°
2026-05-07 21:09 43.24782 -132.19171 38195 ft 463 kts 300°
2026-05-07 21:10 43.28662 -132.26252 38194 ft 465 kts 300°
2026-05-07 21:10 43.32560 -132.33390 38187 ft 468 kts 300°
2026-05-07 21:11 43.36469 -132.40557 38188 ft 469 kts 300°
2026-05-07 21:11 43.42324 -132.51323 38183 ft 469 kts 300°
2026-05-07 21:12 43.46236 -132.58544 38178 ft 470 kts 300°
2026-05-07 21:12 43.50119 -132.65727 38176 ft 471 kts 299°
2026-05-07 21:13 43.54021 -132.72961 38184 ft 471 kts 299°
2026-05-07 21:13 43.57922 -132.80212 38172 ft 471 kts 299°
2026-05-07 21:14 43.61822 -132.87481 38166 ft 471 kts 299°
2026-05-07 21:14 43.65717 -132.94759 38161 ft 471 kts 299°
2026-05-07 21:15 43.69613 -133.02053 38165 ft 472 kts 298°
2026-05-07 21:15 43.73511 -133.09374 38161 ft 473 kts 298°
2026-05-07 21:16 43.77409 -133.16711 38142 ft 473 kts 298°
2026-05-07 21:16 43.81303 -133.24056 38156 ft 473 kts 298°
2026-05-07 21:17 43.85169 -133.31371 38149 ft 474 kts 298°
2026-05-07 21:17 43.89060 -133.38751 38148 ft 474 kts 298°
2026-05-07 21:18 43.92954 -133.46153 38143 ft 474 kts 297°
2026-05-07 21:18 43.96839 -133.53557 38139 ft 475 kts 297°
2026-05-07 21:19 44.00723 -133.60981 38138 ft 475 kts 297°
2026-05-07 21:19 44.03948 -133.67157 38132 ft 475 kts 297°
2026-05-07 21:20 44.08451 -133.75802 38138 ft 475 kts 297°
2026-05-07 21:20 44.12320 -133.83255 38130 ft 475 kts 297°
2026-05-07 21:21 44.15539 -133.89469 38138 ft 475 kts 297°
2026-05-07 21:21 44.19408 -133.96953 38113 ft 475 kts 297°
2026-05-07 21:22 44.23266 -134.04436 38107 ft 475 kts 296°
2026-05-07 21:22 44.27123 -134.11936 38127 ft 475 kts 296°
2026-05-07 21:23 44.30972 -134.19441 38118 ft 475 kts 296°
2026-05-07 21:23 44.34820 -134.26962 38120 ft 476 kts 296°
2026-05-07 21:24 44.38647 -134.34467 38107 ft 477 kts 296°
2026-05-07 21:24 44.42507 -134.42050 38099 ft 477 kts 296°
2026-05-07 21:25 44.46359 -134.49638 38090 ft 477 kts 296°
2026-05-07 21:25 44.50202 -134.57229 38094 ft 479 kts 295°
2026-05-07 21:26 44.54051 -134.64854 38091 ft 480 kts 295°
2026-05-07 21:26 44.57900 -134.72497 38086 ft 479 kts 295°
2026-05-07 21:27 44.61743 -134.80146 38085 ft 480 kts 295°
2026-05-07 21:27 44.65573 -134.87796 38078 ft 482 kts 295°
2026-05-07 21:28 44.69431 -134.95517 38077 ft 483 kts 295°
2026-05-07 21:28 44.73285 -135.03249 38102 ft 483 kts 295°
2026-05-07 21:29 44.77140 -135.11009 38075 ft 485 kts 295°
2026-05-07 21:29 44.81005 -135.18810 38052 ft 485 kts 295°
2026-05-07 21:30 44.84863 -135.26612 38045 ft 485 kts 295°
2026-05-07 21:30 44.88716 -135.34428 38061 ft 486 kts 295°
2026-05-07 21:31 44.92551 -135.42234 38047 ft 488 kts 295°
2026-05-07 21:31 44.96421 -135.50127 38045 ft 488 kts 295°
2026-05-07 21:32 45.00279 -135.58016 38096 ft 488 kts 295°
2026-05-07 21:32 45.04136 -135.65930 38032 ft 490 kts 295°
2026-05-07 21:33 45.08007 -135.73894 38026 ft 491 kts 295°
2026-05-07 21:33 45.11872 -135.81862 38026 ft 491 kts 295°
2026-05-07 21:34 45.15700 -135.89780 38027 ft 491 kts 295°
2026-05-07 21:34 45.19564 -135.97797 38018 ft 493 kts 295°
2026-05-07 21:35 45.23428 -136.05832 38016 ft 493 kts 295°
2026-05-07 21:35 45.27286 -136.13878 38037 ft 493 kts 295°
2026-05-07 21:36 45.31141 -136.21942 38002 ft 495 kts 295°
2026-05-07 21:36 45.35004 -136.30046 37992 ft 495 kts 295°
2026-05-07 21:37 45.38858 -136.38152 37993 ft 495 kts 295°
2026-05-07 21:37 45.42710 -136.46281 37989 ft 495 kts 295°
2026-05-07 21:38 45.46560 -136.54426 37975 ft 495 kts 295°
2026-05-07 21:38 45.50403 -136.62580 37972 ft 495 kts 295°
2026-05-07 21:39 45.54217 -136.70694 37969 ft 495 kts 295°
2026-05-07 21:39 45.58051 -136.78874 37961 ft 495 kts 295°
2026-05-07 21:40 45.61873 -136.87052 37962 ft 495 kts 295°
2026-05-07 21:40 45.65687 -136.95241 37965 ft 495 kts 295°
2026-05-07 21:41 45.69499 -137.03453 37955 ft 496 kts 295°
2026-05-07 21:41 45.73312 -137.11685 37947 ft 496 kts 295°
2026-05-07 21:42 45.77098 -137.19881 37949 ft 496 kts 295°
2026-05-07 21:42 45.80902 -137.28142 37962 ft 496 kts 296°
2026-05-07 21:43 45.84700 -137.36416 37935 ft 497 kts 296°
2026-05-07 21:43 45.88501 -137.44718 37927 ft 497 kts 296°
2026-05-07 21:44 45.92292 -137.53023 37929 ft 497 kts 296°
2026-05-07 21:44 45.96079 -137.61348 37925 ft 498 kts 296°
2026-05-07 21:45 45.99874 -137.69712 37914 ft 498 kts 296°
2026-05-07 21:45 46.03659 -137.78076 37914 ft 498 kts 296°
2026-05-07 21:46 46.07437 -137.86451 37923 ft 499 kts 296°
2026-05-07 21:46 46.11187 -137.94793 37899 ft 500 kts 296°
2026-05-07 21:47 46.14964 -138.03216 37889 ft 500 kts 296°
2026-05-07 21:47 46.18740 -138.11662 37892 ft 500 kts 296°
2026-05-07 21:48 46.22508 -138.20118 37887 ft 501 kts 296°
2026-05-07 21:48 46.26278 -138.28605 37881 ft 502 kts 296°
2026-05-07 21:49 46.30050 -138.37118 37879 ft 502 kts 296°
2026-05-07 21:49 46.33809 -138.45628 37896 ft 502 kts 296°
2026-05-07 21:50 46.37570 -138.54173 37867 ft 503 kts 296°
2026-05-07 21:50 46.41309 -138.62694 37863 ft 503 kts 296°
2026-05-07 21:51 46.45058 -138.71258 37862 ft 503 kts 296°
2026-05-07 21:51 46.48801 -138.79838 37856 ft 504 kts 296°
2026-05-07 21:52 46.52552 -138.88465 37851 ft 505 kts 296°
2026-05-07 21:52 46.56298 -138.97108 37850 ft 505 kts 296°
2026-05-07 21:53 46.60036 -139.05758 37852 ft 505 kts 297°
2026-05-07 21:53 46.63749 -139.14376 37834 ft 507 kts 297°
2026-05-07 21:54 46.67487 -139.23080 37829 ft 507 kts 296°
2026-05-07 21:54 46.71226 -139.31812 37828 ft 507 kts 296°
2026-05-07 21:55 46.74929 -139.40488 37825 ft 507 kts 296°
2026-05-07 21:55 46.78649 -139.49232 37814 ft 507 kts 296°
2026-05-07 21:56 46.82362 -139.57988 37817 ft 507 kts 296°
2026-05-07 21:56 46.86071 -139.66760 37811 ft 508 kts 296°
2026-05-07 21:57 46.89771 -139.75540 37800 ft 507 kts 296°
2026-05-07 21:57 46.93463 -139.84332 37802 ft 507 kts 296°
2026-05-07 21:58 46.97150 -139.93138 37802 ft 507 kts 296°
2026-05-07 21:58 47.00463 -140.02181 37804 ft 500 kts 287°
2026-05-07 21:59 47.02994 -140.11671 37777 ft 499 kts 285°
2026-05-07 21:59 47.05385 -140.21236 37779 ft 499 kts 284°
2026-05-07 22:00 47.07751 -140.30814 37773 ft 499 kts 284°
2026-05-07 22:00 47.10107 -140.40335 37771 ft 500 kts 285°
2026-05-07 22:01 47.12485 -140.49944 37762 ft 501 kts 285°
2026-05-07 22:01 47.14861 -140.59576 37758 ft 501 kts 285°
2026-05-07 22:02 47.17224 -140.69200 37758 ft 501 kts 284°
2026-05-07 22:02 47.19567 -140.78786 37743 ft 501 kts 285°
2026-05-07 22:03 47.21919 -140.88454 37736 ft 502 kts 284°
2026-05-07 22:03 47.24265 -140.98136 37736 ft 502 kts 284°
2026-05-07 22:04 47.26601 -141.07817 37724 ft 502 kts 284°
2026-05-07 22:04 47.28929 -141.17511 37725 ft 503 kts 284°
2026-05-07 22:05 47.31255 -141.27241 37720 ft 504 kts 284°
2026-05-07 22:05 47.33577 -141.36994 37711 ft 504 kts 284°
2026-05-07 22:06 47.35874 -141.46669 37699 ft 502 kts 284°
2026-05-07 22:06 47.38172 -141.56408 37692 ft 503 kts 284°
2026-05-07 22:07 47.40466 -141.66184 37686 ft 504 kts 284°
2026-05-07 22:07 47.42757 -141.75983 37686 ft 504 kts 284°
2026-05-07 22:08 47.45040 -141.85787 37678 ft 504 kts 284°
2026-05-07 22:08 47.47312 -141.95593 37670 ft 505 kts 284°
2026-05-07 22:09 47.49565 -142.05354 37659 ft 505 kts 284°
2026-05-07 22:09 47.51819 -142.15186 37650 ft 505 kts 284°
2026-05-07 22:10 47.54070 -142.25023 37652 ft 505 kts 284°
2026-05-07 22:10 47.55932 -142.33205 37653 ft 505 kts 284°
2026-05-07 22:11 47.58172 -142.43081 37641 ft 506 kts 284°
2026-05-07 22:11 47.60401 -142.52964 37641 ft 505 kts 283°
2026-05-07 22:12 47.62625 -142.62862 37636 ft 505 kts 283°
2026-05-07 22:12 47.64839 -142.72772 37619 ft 507 kts 284°
2026-05-07 22:13 47.67053 -142.82723 37616 ft 508 kts 283°
2026-05-07 22:13 47.69258 -142.92684 37614 ft 508 kts 283°
2026-05-07 22:14 47.71456 -143.02652 37619 ft 507 kts 284°
2026-05-07 22:14 47.73630 -143.12564 37618 ft 508 kts 283°
2026-05-07 22:15 47.75813 -143.22571 37619 ft 510 kts 283°
2026-05-07 22:15 47.77997 -143.32623 37616 ft 510 kts 283°
2026-05-07 22:16 47.80167 -143.42670 37601 ft 510 kts 283°
2026-05-07 22:16 47.82332 -143.52732 37596 ft 511 kts 283°
2026-05-07 22:17 47.84491 -143.62805 37593 ft 511 kts 283°
2026-05-07 22:17 47.86635 -143.72869 37591 ft 509 kts 283°
2026-05-07 22:18 47.89837 -143.87994 37594 ft 510 kts 284°
2026-05-07 22:19 47.91960 -143.98092 37594 ft 511 kts 283°
2026-05-07 22:19 47.94063 -144.08141 37590 ft 511 kts 283°
2026-05-07 22:20 47.96170 -144.18274 37582 ft 512 kts 283°
2026-05-07 22:20 47.98278 -144.28441 37587 ft 512 kts 283°
2026-05-07 22:21 48.00370 -144.38607 37579 ft 514 kts 283°
2026-05-07 22:21 48.02469 -144.48840 37581 ft 516 kts 283°
2026-05-07 22:22 48.04566 -144.59100 37581 ft 517 kts 282°
2026-05-07 22:22 48.06662 -144.69388 37586 ft 517 kts 283°
2026-05-07 22:23 48.08719 -144.79575 37561 ft 512 kts 282°
2026-05-07 22:23 48.10753 -144.89751 37563 ft 510 kts 283°
2026-05-07 22:24 48.12792 -144.99953 37558 ft 511 kts 283°
2026-05-07 22:24 48.14829 -145.10156 37562 ft 510 kts 284°
2026-05-07 22:25 48.16839 -145.20313 37563 ft 508 kts 284°
2026-05-07 22:25 48.18839 -145.30483 37562 ft 509 kts 283°
2026-05-07 22:26 48.20836 -145.40673 37561 ft 511 kts 283°
2026-05-07 22:26 48.22820 -145.50901 37547 ft 512 kts 284°
2026-05-07 22:27 48.24812 -145.61173 37548 ft 514 kts 284°
2026-05-07 22:27 48.26786 -145.71391 37545 ft 511 kts 284°
2026-05-07 22:28 48.28741 -145.81655 37544 ft 509 kts 282°
2026-05-07 22:28 48.30693 -145.91933 37546 ft 515 kts 283°
2026-05-07 22:29 48.32670 -146.02331 37544 ft 517 kts 284°
2026-05-07 22:29 48.34643 -146.12725 37541 ft 514 kts 283°
2026-05-07 22:30 48.36564 -146.23021 37529 ft 509 kts 282°
2026-05-07 22:30 48.38480 -146.33349 37532 ft 517 kts 283°
2026-05-07 22:31 48.40422 -146.43807 37534 ft 519 kts 283°
2026-05-07 22:31 48.42354 -146.54186 37540 ft 519 kts 284°
2026-05-07 22:32 48.44237 -146.64518 37522 ft 506 kts 284°
2026-05-07 22:32 48.46125 -146.74809 37535 ft 512 kts 284°
2026-05-07 22:33 48.47938 -146.85040 37525 ft 497 kts 282°
2026-05-07 22:33 48.49760 -146.95185 37521 ft 505 kts 283°
2026-05-07 22:34 48.51613 -147.05379 37520 ft 507 kts 282°
2026-05-07 22:34 48.53453 -147.15702 37532 ft 512 kts 282°
2026-05-07 22:35 48.55305 -147.26151 37530 ft 516 kts 282°
2026-05-07 22:35 48.57185 -147.36648 37529 ft 518 kts 283°
2026-05-07 22:36 48.59003 -147.47072 37534 ft 510 kts 283°
2026-05-07 22:36 48.60789 -147.57423 37534 ft 508 kts 283°
2026-05-07 22:37 48.62572 -147.67763 37527 ft 508 kts 283°
2026-05-07 22:37 48.64349 -147.78104 37524 ft 508 kts 283°
2026-05-07 22:38 48.66107 -147.88383 37524 ft 508 kts 283°
2026-05-07 22:38 48.67864 -147.98725 37533 ft 508 kts 283°
2026-05-07 22:39 48.69615 -148.09083 37528 ft 508 kts 283°
2026-05-07 22:39 48.71358 -148.19459 37522 ft 509 kts 282°
2026-05-07 22:40 48.73091 -148.29848 37534 ft 508 kts 283°
2026-05-07 22:40 48.74829 -148.40228 37519 ft 510 kts 283°
2026-05-07 22:41 48.76608 -148.50698 37524 ft 515 kts 282°
2026-05-07 22:41 48.78345 -148.61272 37528 ft 517 kts 281°
2026-05-07 22:42 48.80014 -148.71819 37534 ft 511 kts 281°
2026-05-07 22:42 48.81685 -148.82264 37536 ft 514 kts 281°
2026-05-07 22:43 48.83345 -148.92699 37532 ft 504 kts 282°
2026-05-07 22:43 48.85014 -149.03079 37532 ft 508 kts 282°
2026-05-07 22:44 48.86665 -149.13468 37530 ft 503 kts 282°
2026-05-07 22:44 48.88317 -149.23848 37542 ft 508 kts 281°
2026-05-07 22:45 48.89961 -149.34336 37537 ft 510 kts 281°
2026-05-07 22:45 48.91586 -149.44805 37537 ft 508 kts 281°
2026-05-07 22:46 48.93190 -149.55230 37542 ft 505 kts 281°
2026-05-07 22:46 48.94795 -149.65628 37550 ft 506 kts 281°
2026-05-07 22:47 48.96398 -149.76082 37544 ft 507 kts 281°
2026-05-07 22:47 48.97974 -149.86480 37543 ft 507 kts 281°
2026-05-07 22:48 48.99538 -149.96905 37542 ft 503 kts 281°
2026-05-07 22:48 49.01087 -150.07306 37544 ft 503 kts 280°
2026-05-07 22:49 49.02600 -150.17761 37553 ft 505 kts 280°
2026-05-07 22:49 49.04086 -150.28186 37552 ft 502 kts 280°
2026-05-07 22:50 49.05558 -150.38536 37556 ft 502 kts 281°
2026-05-07 22:50 49.07032 -150.48931 37556 ft 501 kts 281°
2026-05-07 22:51 49.08498 -150.59322 37554 ft 502 kts 280°
2026-05-07 22:51 49.09959 -150.69760 37554 ft 503 kts 280°
2026-05-07 22:52 49.11405 -150.80205 37555 ft 502 kts 281°
2026-05-07 22:52 49.12845 -150.90643 37554 ft 502 kts 280°
2026-05-07 22:53 49.14280 -151.01111 37558 ft 504 kts 280°
2026-05-07 22:53 49.15693 -151.11525 37566 ft 504 kts 280°
2026-05-07 22:54 49.17104 -151.21998 37561 ft 503 kts 280°
2026-05-07 22:54 49.18506 -151.32462 37557 ft 502 kts 279°
2026-05-07 22:55 49.19901 -151.42947 37566 ft 503 kts 280°
2026-05-07 22:55 49.21285 -151.53435 37562 ft 503 kts 280°
2026-05-07 22:56 49.22658 -151.63927 37572 ft 503 kts 279°
2026-05-07 22:56 49.24024 -151.74427 37571 ft 503 kts 279°
2026-05-07 22:57 49.25382 -151.84948 37561 ft 503 kts 279°
2026-05-07 22:57 49.26720 -151.95396 37571 ft 503 kts 279°
2026-05-07 22:58 49.28058 -152.05930 37561 ft 503 kts 279°
2026-05-07 22:58 49.29385 -152.16463 37562 ft 503 kts 279°
2026-05-07 22:59 49.30702 -152.26995 37566 ft 503 kts 279°
2026-05-07 22:59 49.32010 -152.37527 37561 ft 503 kts 279°
2026-05-07 23:00 49.33308 -152.48071 37559 ft 503 kts 279°
2026-05-07 23:00 49.34380 -152.56838 37563 ft 503 kts 279°
2026-05-07 23:01 49.35868 -152.69103 37565 ft 503 kts 279°
2026-05-07 23:01 49.36932 -152.77944 37565 ft 503 kts 279°
2026-05-07 23:02 49.38186 -152.88447 37563 ft 503 kts 278°
2026-05-07 23:02 49.39436 -152.98996 37570 ft 503 kts 278°
2026-05-07 23:03 49.40678 -153.09564 37570 ft 503 kts 278°
2026-05-07 23:03 49.41908 -153.20121 37570 ft 503 kts 278°
2026-05-07 23:04 49.43129 -153.30693 37563 ft 502 kts 278°
2026-05-07 23:04 49.44339 -153.41258 37569 ft 502 kts 278°
2026-05-07 23:05 49.45542 -153.51845 37567 ft 503 kts 278°
2026-05-07 23:05 49.46734 -153.62422 37575 ft 502 kts 278°
2026-05-07 23:06 49.47918 -153.73019 37568 ft 503 kts 278°
2026-05-07 23:06 49.49092 -153.83632 37561 ft 503 kts 278°
2026-05-07 23:07 49.50258 -153.94246 37581 ft 504 kts 277°
2026-05-07 23:07 49.51413 -154.04869 37578 ft 503 kts 278°
2026-05-07 23:08 49.52555 -154.15458 37568 ft 506 kts 277°
2026-05-07 23:08 49.53696 -154.26153 37571 ft 505 kts 277°
2026-05-07 23:09 49.54827 -154.36837 37589 ft 505 kts 278°
2026-05-07 23:09 49.55947 -154.47501 37600 ft 504 kts 277°
2026-05-07 23:10 49.57058 -154.58177 37597 ft 506 kts 277°
2026-05-07 23:10 49.58161 -154.68890 37602 ft 507 kts 277°
2026-05-07 23:11 49.59255 -154.79636 37617 ft 507 kts 277°
2026-05-07 23:11 49.60333 -154.90297 37604 ft 507 kts 276°
2026-05-07 23:12 49.61406 -155.01025 37617 ft 505 kts 277°
2026-05-07 23:12 49.62469 -155.11744 37615 ft 507 kts 276°
2026-05-07 23:13 49.63524 -155.22499 37622 ft 509 kts 276°
2026-05-07 23:13 49.64572 -155.33300 37636 ft 507 kts 277°
2026-05-07 23:14 49.65610 -155.44080 37638 ft 507 kts 277°
2026-05-07 23:14 49.66637 -155.54845 37640 ft 506 kts 277°
2026-05-07 23:15 49.67652 -155.65623 37643 ft 507 kts 276°
2026-05-07 23:15 49.68662 -155.76458 37660 ft 512 kts 276°
2026-05-07 23:16 49.69658 -155.87253 37649 ft 510 kts 276°
2026-05-07 23:16 49.70650 -155.98099 37659 ft 509 kts 276°
2026-05-07 23:17 49.71630 -156.08947 37670 ft 511 kts 276°
2026-05-07 23:17 49.72604 -156.19831 37671 ft 512 kts 275°
2026-05-07 23:18 49.73566 -156.30720 37681 ft 511 kts 276°
2026-05-07 23:18 49.74515 -156.41588 37674 ft 508 kts 276°
2026-05-07 23:19 49.75456 -156.52446 37687 ft 510 kts 276°
2026-05-07 23:19 49.76381 -156.63264 37692 ft 512 kts 276°
2026-05-07 23:20 49.77303 -156.74175 37684 ft 511 kts 275°
2026-05-07 23:20 49.78212 -156.85061 37694 ft 509 kts 276°
2026-05-07 23:21 49.79112 -156.95939 37695 ft 510 kts 276°
2026-05-07 23:21 49.80003 -157.06854 37706 ft 513 kts 275°
2026-05-07 23:22 49.80885 -157.17792 37712 ft 511 kts 276°
2026-05-07 23:22 49.81755 -157.28691 37708 ft 509 kts 275°
2026-05-07 23:23 49.82614 -157.39599 37719 ft 511 kts 275°
2026-05-07 23:23 49.83458 -157.50465 37717 ft 511 kts 275°
2026-05-07 23:24 49.84298 -157.61393 37724 ft 510 kts 275°
2026-05-07 23:24 49.85127 -157.72319 37738 ft 511 kts 275°
2026-05-07 23:25 49.85948 -157.83283 37735 ft 513 kts 275°
2026-05-07 23:25 49.86759 -157.94254 37737 ft 512 kts 275°
2026-05-07 23:26 49.87560 -158.05229 37734 ft 511 kts 275°
2026-05-07 23:26 49.88345 -158.16137 37746 ft 512 kts 275°
2026-05-07 23:27 49.89511 -158.32624 37751 ft 512 kts 275°
2026-05-07 23:27 49.90276 -158.43605 37752 ft 512 kts 275°
2026-05-07 23:28 49.91029 -158.54584 37755 ft 512 kts 275°
2026-05-07 23:28 49.91772 -158.65576 37766 ft 512 kts 275°
2026-05-07 23:29 49.92505 -158.76568 37754 ft 512 kts 275°
2026-05-07 23:29 49.93227 -158.87557 37771 ft 513 kts 275°
2026-05-07 23:30 49.93935 -158.98496 37767 ft 513 kts 275°
2026-05-07 23:30 49.94638 -159.09512 37776 ft 512 kts 274°
2026-05-07 23:31 49.95329 -159.20514 37779 ft 512 kts 274°
2026-05-07 23:31 49.96010 -159.31523 37779 ft 512 kts 274°
2026-05-07 23:32 49.96681 -159.42538 37769 ft 511 kts 274°
2026-05-07 23:32 49.97341 -159.53547 37774 ft 513 kts 274°
2026-05-07 23:33 49.97988 -159.64523 37782 ft 513 kts 274°
2026-05-07 23:33 49.98629 -159.75568 37787 ft 513 kts 274°
2026-05-07 23:34 49.99259 -159.86616 37786 ft 513 kts 274°
2026-05-07 23:34 49.99879 -159.97669 37792 ft 513 kts 274°
2026-05-07 23:35 50.00439 -160.08724 37787 ft 513 kts 273°
2026-05-07 23:35 50.00879 -160.19792 37793 ft 512 kts 272°
2026-05-07 23:36 50.01304 -160.30858 37796 ft 512 kts 272°
2026-05-07 23:36 50.01736 -160.41923 37796 ft 512 kts 272°
2026-05-07 23:37 50.02164 -160.52912 37801 ft 512 kts 272°
2026-05-07 23:37 50.02586 -160.63970 37804 ft 512 kts 272°
2026-05-07 23:38 50.02996 -160.75015 37805 ft 512 kts 272°
2026-05-07 23:38 50.03395 -160.86065 37803 ft 512 kts 272°
2026-05-07 23:39 50.03784 -160.97121 37806 ft 512 kts 272°
2026-05-07 23:39 50.04162 -161.08176 37806 ft 511 kts 272°
2026-05-07 23:40 50.04529 -161.19219 37805 ft 512 kts 272°
2026-05-07 23:40 50.04886 -161.30281 37805 ft 512 kts 272°
2026-05-07 23:41 50.05232 -161.41338 37808 ft 512 kts 271°
2026-05-07 23:41 50.05568 -161.52402 37811 ft 511 kts 271°
2026-05-07 23:42 50.05891 -161.63379 37812 ft 511 kts 271°
2026-05-07 23:42 50.06206 -161.74422 37814 ft 511 kts 271°
2026-05-07 23:43 50.06510 -161.85465 37816 ft 511 kts 271°
2026-05-07 23:43 50.06803 -161.96513 37816 ft 511 kts 271°
2026-05-07 23:44 50.07086 -162.07551 37817 ft 510 kts 271°
2026-05-07 23:44 50.07359 -162.18604 37820 ft 510 kts 271°
2026-05-07 23:45 50.07621 -162.29643 37820 ft 510 kts 271°
2026-05-07 23:45 50.07872 -162.40688 37827 ft 510 kts 271°
2026-05-07 23:46 50.08113 -162.51739 37821 ft 510 kts 271°
2026-05-07 23:46 50.08342 -162.62714 37825 ft 510 kts 271°
2026-05-07 23:47 50.08562 -162.73745 37823 ft 510 kts 271°
2026-05-07 23:47 50.08772 -162.84810 37829 ft 510 kts 271°
2026-05-07 23:48 50.08971 -162.95843 37827 ft 510 kts 270°
2026-05-07 23:48 50.09128 -163.05009 37826 ft 510 kts 270°
2026-05-07 23:49 50.09336 -163.17883 37831 ft 511 kts 270°
2026-05-07 23:49 50.09478 -163.27168 37830 ft 511 kts 270°
2026-05-07 23:50 50.09636 -163.38184 37827 ft 511 kts 270°
2026-05-07 23:50 50.09785 -163.49267 37826 ft 511 kts 270°
2026-05-07 23:51 50.09924 -163.60340 37835 ft 511 kts 270°
2026-05-07 23:51 50.10050 -163.71359 37833 ft 511 kts 270°
2026-05-07 23:52 50.10167 -163.82430 37833 ft 511 kts 270°
2026-05-07 23:52 50.10274 -163.93496 37831 ft 511 kts 270°
2026-05-07 23:53 50.10370 -164.04565 37832 ft 511 kts 270°
2026-05-07 23:53 50.10455 -164.15625 37832 ft 511 kts 270°
2026-05-07 23:54 50.10530 -164.26685 37834 ft 511 kts 270°
2026-05-07 23:54 50.10595 -164.37743 37834 ft 510 kts 269°
2026-05-07 23:55 50.10648 -164.48721 37832 ft 510 kts 269°
2026-05-07 23:55 50.10691 -164.59761 37831 ft 509 kts 269°
2026-05-07 23:56 50.10724 -164.70803 37829 ft 509 kts 269°
2026-05-07 23:56 50.10747 -164.81848 37836 ft 509 kts 269°
2026-05-07 23:57 50.10759 -164.92906 37829 ft 511 kts 269°
2026-05-07 23:57 50.10760 -165.03963 37832 ft 511 kts 269°
2026-05-07 23:58 50.10751 -165.15034 37831 ft 511 kts 269°
2026-05-07 23:58 50.10732 -165.26104 37827 ft 511 kts 269°
2026-05-07 23:59 50.10702 -165.37086 37826 ft 510 kts 269°
2026-05-07 23:59 50.10661 -165.48147 37829 ft 510 kts 269°
2026-05-08 00:00 50.10610 -165.59216 37832 ft 511 kts 269°
2026-05-08 00:00 50.10548 -165.70285 37829 ft 511 kts 268°
2026-05-08 00:01 50.10477 -165.81288 37826 ft 511 kts 268°
2026-05-08 00:01 50.10394 -165.92340 37823 ft 510 kts 268°
2026-05-08 00:02 50.10301 -166.03399 37823 ft 510 kts 268°
2026-05-08 00:02 50.10198 -166.14479 37827 ft 510 kts 268°
2026-05-08 00:03 50.10084 -166.25495 37821 ft 511 kts 268°
2026-05-08 00:03 50.09959 -166.36548 37821 ft 511 kts 268°
2026-05-08 00:04 50.09824 -166.47624 37820 ft 511 kts 268°
2026-05-08 00:04 50.09679 -166.58683 37815 ft 511 kts 268°
2026-05-08 00:05 50.09522 -166.69762 37814 ft 512 kts 268°
2026-05-08 00:05 50.09355 -166.80862 37813 ft 512 kts 268°
2026-05-08 00:06 50.09177 -166.91957 37814 ft 512 kts 268°
2026-05-08 00:06 50.08990 -167.02983 37812 ft 512 kts 268°
2026-05-08 00:07 50.08791 -167.14077 37808 ft 512 kts 268°
2026-05-08 00:07 50.08582 -167.25147 37805 ft 512 kts 268°
2026-05-08 00:08 50.08361 -167.36253 37799 ft 512 kts 267°
2026-05-08 00:08 50.08132 -167.47334 37801 ft 513 kts 267°
2026-05-08 00:09 50.07890 -167.58445 37798 ft 512 kts 268°
2026-05-08 00:09 50.07639 -167.69483 37804 ft 513 kts 267°
2026-05-08 00:10 50.07376 -167.80572 37792 ft 513 kts 268°
2026-05-08 00:10 50.07104 -167.91673 37793 ft 512 kts 267°
2026-05-08 00:11 50.06819 -168.02789 37790 ft 514 kts 267°
2026-05-08 00:11 50.06525 -168.13893 37783 ft 514 kts 267°
2026-05-08 00:12 50.06221 -168.24995 37780 ft 512 kts 267°
2026-05-08 00:12 50.05905 -168.36093 37788 ft 514 kts 267°
2026-05-08 00:13 50.05579 -168.47191 37787 ft 514 kts 267°
2026-05-08 00:13 50.05243 -168.58309 37773 ft 514 kts 267°
2026-05-08 00:14 50.04895 -168.69426 37774 ft 514 kts 267°
2026-05-08 00:14 50.04539 -168.80440 37771 ft 513 kts 267°
2026-05-08 00:15 50.04170 -168.91524 37769 ft 512 kts 267°
2026-05-08 00:15 50.03791 -169.02619 37766 ft 514 kts 267°
2026-05-08 00:16 50.03402 -169.13692 37770 ft 513 kts 266°
2026-05-08 00:16 50.03003 -169.24749 37773 ft 511 kts 266°
2026-05-08 00:17 50.02594 -169.35810 37771 ft 512 kts 266°
2026-05-08 00:17 50.02173 -169.46865 37767 ft 513 kts 266°
2026-05-08 00:18 50.01743 -169.57927 37762 ft 511 kts 266°
2026-05-08 00:18 50.01303 -169.68948 37762 ft 510 kts 266°
2026-05-08 00:19 50.00852 -169.79967 37766 ft 511 kts 266°
2026-05-08 00:19 50.00395 -169.90896 37764 ft 510 kts 266°
2026-05-08 00:20 50.00161 -169.96412 37894 ft 510 kts 266°
2026-05-08 00:20 49.99925 -170.01879 38275 ft 505 kts 266°
2026-05-08 00:20 49.99655 -170.07321 38484 ft 505 kts 265°
2026-05-08 00:20 49.99347 -170.12747 38657 ft 503 kts 265°
2026-05-08 00:21 49.99026 -170.18142 38903 ft 500 kts 264°
2026-05-08 00:21 49.98701 -170.23520 39012 ft 500 kts 264°
2026-05-08 00:21 49.98056 -170.34319 39190 ft 501 kts 264°
2026-05-08 00:22 49.97736 -170.39717 39291 ft 501 kts 264°
2026-05-08 00:22 49.97420 -170.45038 39420 ft 501 kts 264°
2026-05-08 00:22 49.97100 -170.50426 39536 ft 501 kts 264°
2026-05-08 00:22 49.96776 -170.55821 39671 ft 501 kts 264°
2026-05-08 00:23 49.96121 -170.66625 39762 ft 503 kts 264°
2026-05-08 00:23 49.95454 -170.77438 39763 ft 503 kts 264°
2026-05-08 00:24 49.94778 -170.88241 39763 ft 502 kts 264°
2026-05-08 00:24 49.94092 -170.99028 39766 ft 501 kts 264°
2026-05-08 00:25 49.93396 -171.09810 39766 ft 501 kts 264°
2026-05-08 00:25 49.92696 -171.20502 39766 ft 501 kts 264°
2026-05-08 00:26 49.91982 -171.31263 39769 ft 501 kts 264°
2026-05-08 00:26 49.91257 -171.42018 39768 ft 501 kts 264°
2026-05-08 00:27 49.90523 -171.52771 39769 ft 501 kts 264°
2026-05-08 00:27 49.89779 -171.63509 39771 ft 501 kts 264°
2026-05-08 00:28 49.89025 -171.74248 39768 ft 501 kts 264°
2026-05-08 00:28 49.88262 -171.84981 39771 ft 500 kts 264°
2026-05-08 00:29 49.87490 -171.95694 39774 ft 500 kts 264°
2026-05-08 00:29 49.86712 -172.06338 39774 ft 500 kts 263°
2026-05-08 00:30 49.85921 -172.17043 39774 ft 500 kts 263°
2026-05-08 00:30 49.85118 -172.27763 39774 ft 500 kts 263°
2026-05-08 00:31 49.84306 -172.38465 39774 ft 500 kts 263°
2026-05-08 00:31 49.83484 -172.49165 39774 ft 500 kts 263°
2026-05-08 00:32 49.82652 -172.59862 39774 ft 500 kts 263°
2026-05-08 00:32 49.81811 -172.70551 39774 ft 500 kts 263°
2026-05-08 00:33 49.80959 -172.81246 39779 ft 500 kts 263°
2026-05-08 00:33 49.80098 -172.91933 39779 ft 500 kts 263°
2026-05-08 00:34 49.79227 -173.02617 39782 ft 500 kts 263°
2026-05-08 00:34 49.78346 -173.13296 39785 ft 500 kts 263°
2026-05-08 00:35 49.77455 -173.23979 39785 ft 500 kts 263°
2026-05-08 00:35 49.76562 -173.34555 39787 ft 498 kts 263°
2026-05-08 00:36 49.75657 -173.45164 39788 ft 497 kts 262°
2026-05-08 00:36 49.74743 -173.55755 39793 ft 497 kts 262°
2026-05-08 00:37 49.73820 -173.66343 39793 ft 497 kts 262°
2026-05-08 00:38 49.72575 -173.80434 39800 ft 496 kts 262°
2026-05-08 00:38 49.71631 -173.90999 39804 ft 496 kts 262°
2026-05-08 00:39 49.70676 -174.01563 39811 ft 496 kts 262°
2026-05-08 00:39 49.69712 -174.12126 39816 ft 496 kts 262°
2026-05-08 00:40 49.68739 -174.22670 39814 ft 495 kts 262°
2026-05-08 00:40 49.67766 -174.33110 39814 ft 494 kts 262°
2026-05-08 00:41 49.66778 -174.43606 39824 ft 494 kts 262°
2026-05-08 00:41 49.65780 -174.54102 39823 ft 494 kts 262°
2026-05-08 00:42 49.64773 -174.64590 39835 ft 493 kts 262°
2026-05-08 00:42 49.63759 -174.75043 39831 ft 492 kts 262°
2026-05-08 00:43 49.62738 -174.85468 39836 ft 491 kts 262°
2026-05-08 00:43 49.61710 -174.95869 39841 ft 489 kts 262°
2026-05-08 00:44 49.60677 -175.06225 39851 ft 489 kts 262°
2026-05-08 00:44 49.59641 -175.16510 39857 ft 489 kts 262°
2026-05-08 00:45 49.58591 -175.26849 39859 ft 488 kts 262°
2026-05-08 00:45 49.57529 -175.37193 39856 ft 488 kts 262°
2026-05-08 00:46 49.56459 -175.47530 39851 ft 488 kts 261°
2026-05-08 00:46 49.55381 -175.57846 39862 ft 486 kts 262°
2026-05-08 00:47 49.54299 -175.68119 39867 ft 485 kts 261°
2026-05-08 00:47 49.53209 -175.78372 39876 ft 485 kts 262°
2026-05-08 00:48 49.52110 -175.88626 39878 ft 486 kts 262°
2026-05-08 00:48 49.51002 -175.98872 39876 ft 486 kts 262°
2026-05-08 00:49 49.49887 -176.09088 39885 ft 483 kts 262°
2026-05-08 00:49 49.48775 -176.19193 39882 ft 482 kts 262°
2026-05-08 00:50 49.47647 -176.29357 39890 ft 482 kts 261°
2026-05-08 00:50 49.46508 -176.39525 39894 ft 481 kts 262°
2026-05-08 00:51 49.45366 -176.49660 39896 ft 480 kts 262°
2026-05-08 00:51 49.44214 -176.59788 39899 ft 480 kts 262°
2026-05-08 00:52 49.43056 -176.69886 39905 ft 480 kts 262°
2026-05-08 00:52 49.41890 -176.79976 39908 ft 480 kts 262°
2026-05-08 00:53 49.40713 -176.90079 39904 ft 480 kts 261°
2026-05-08 00:53 49.39536 -177.00100 39912 ft 480 kts 261°
2026-05-08 00:54 49.38344 -177.10174 39912 ft 480 kts 261°
2026-05-08 00:54 49.37142 -177.20249 39922 ft 480 kts 261°
2026-05-08 00:55 49.35929 -177.30338 39923 ft 480 kts 261°
2026-05-08 00:55 49.34710 -177.40397 39921 ft 479 kts 261°
2026-05-08 00:56 49.33493 -177.50366 39921 ft 478 kts 261°
2026-05-08 00:56 49.32260 -177.60394 39927 ft 478 kts 261°
2026-05-08 00:57 49.31017 -177.70426 39932 ft 478 kts 261°
2026-05-08 00:57 49.29766 -177.80445 39931 ft 478 kts 261°
2026-05-08 00:58 49.28506 -177.90469 39928 ft 478 kts 261°
2026-05-08 00:58 49.27241 -178.00453 39939 ft 478 kts 261°
2026-05-08 00:59 49.25973 -178.10382 39943 ft 478 kts 261°
2026-05-08 00:59 49.24690 -178.20364 39929 ft 478 kts 261°
2026-05-08 01:00 49.23399 -178.30331 39943 ft 477 kts 261°
2026-05-08 01:00 49.22102 -178.40279 39945 ft 477 kts 260°
2026-05-08 01:01 49.20798 -178.50212 39940 ft 477 kts 260°
2026-05-08 01:01 49.19483 -178.60155 39948 ft 477 kts 260°
2026-05-08 01:02 49.18160 -178.70083 39947 ft 476 kts 260°
2026-05-08 01:02 49.16832 -178.79984 39951 ft 474 kts 260°
2026-05-08 01:03 49.15497 -178.89868 39949 ft 474 kts 260°
2026-05-08 01:03 49.14166 -178.99662 39949 ft 474 kts 260°
2026-05-08 01:04 49.12816 -179.09525 39952 ft 474 kts 260°
2026-05-08 01:04 49.11459 -179.19366 39955 ft 473 kts 260°
2026-05-08 01:05 49.10098 -179.29175 39955 ft 472 kts 260°
2026-05-08 01:05 49.08732 -179.38958 39957 ft 472 kts 260°
2026-05-08 01:06 49.07359 -179.48723 39962 ft 470 kts 260°
2026-05-08 01:06 49.05981 -179.58463 39963 ft 469 kts 260°
2026-05-08 01:07 49.04596 -179.68186 39961 ft 469 kts 260°
2026-05-08 01:07 49.03204 -179.77903 39964 ft 469 kts 260°
2026-05-08 01:08 49.01802 -179.87620 39964 ft 469 kts 260°
2026-05-08 01:08 49.00394 -179.97258 39962 ft 470 kts 259°
2026-05-08 01:09 48.98383 179.93260 39969 ft 470 kts 253°
2026-05-08 01:09 48.96138 179.83908 39971 ft 470 kts 252°
2026-05-08 01:10 48.93849 179.74594 39972 ft 470 kts 252°
2026-05-08 01:10 48.91557 179.65278 39972 ft 470 kts 252°
2026-05-08 01:11 48.89267 179.55967 39958 ft 470 kts 252°
2026-05-08 01:11 48.86974 179.46669 39976 ft 469 kts 252°
2026-05-08 01:12 48.84676 179.37393 39975 ft 468 kts 252°
2026-05-08 01:12 48.82376 179.28147 39982 ft 468 kts 252°
2026-05-08 01:13 48.80081 179.18957 39979 ft 468 kts 252°
2026-05-08 01:13 48.77765 179.09725 39981 ft 468 kts 252°
2026-05-08 01:14 48.75444 179.00509 39979 ft 467 kts 252°
2026-05-08 01:14 48.73121 178.91324 39988 ft 466 kts 252°
2026-05-08 01:15 48.70793 178.82153 39991 ft 466 kts 252°
2026-05-08 01:15 48.68458 178.72992 39994 ft 467 kts 252°
2026-05-08 01:16 48.66128 178.63891 40000 ft 466 kts 252°
2026-05-08 01:16 48.63780 178.54755 39989 ft 466 kts 252°
2026-05-08 01:17 48.61425 178.45629 39993 ft 465 kts 252°
2026-05-08 01:17 48.59065 178.36514 39999 ft 465 kts 252°
2026-05-08 01:18 48.56698 178.27414 40000 ft 465 kts 252°
2026-05-08 01:18 48.54331 178.18350 40001 ft 463 kts 252°
2026-05-08 01:19 48.51981 178.09384 40002 ft 462 kts 252°
2026-05-08 01:19 48.49609 178.00370 40001 ft 462 kts 252°
2026-05-08 01:20 48.47232 177.91371 40001 ft 462 kts 252°
2026-05-08 01:20 48.44846 177.82374 40001 ft 461 kts 252°
2026-05-08 01:21 48.42466 177.73440 40006 ft 457 kts 252°
2026-05-08 01:21 48.40094 177.64568 40012 ft 455 kts 252°
2026-05-08 01:22 48.37744 177.55808 40005 ft 453 kts 252°
2026-05-08 01:22 48.35377 177.47015 40011 ft 453 kts 252°
2026-05-08 01:23 48.33003 177.38229 40008 ft 452 kts 252°
2026-05-08 01:23 48.30634 177.29498 40012 ft 450 kts 252°
2026-05-08 01:24 48.28265 177.20797 40012 ft 450 kts 252°
2026-05-08 01:24 48.25904 177.12157 40015 ft 450 kts 252°
2026-05-08 01:25 48.23522 177.03472 40015 ft 450 kts 252°
2026-05-08 01:25 48.21130 176.94788 40014 ft 449 kts 252°
2026-05-08 01:26 48.18745 176.86159 40015 ft 448 kts 252°
2026-05-08 01:26 48.16759 176.78996 40015 ft 447 kts 252°
2026-05-08 01:27 48.13981 176.69013 40016 ft 446 kts 252°
2026-05-08 01:27 48.11977 176.61835 40015 ft 446 kts 252°
2026-05-08 01:28 48.09594 176.53332 40010 ft 445 kts 252°
2026-05-08 01:28 48.07194 176.44797 40018 ft 444 kts 252°
2026-05-08 01:29 48.04794 176.36289 40016 ft 444 kts 252°
2026-05-08 01:29 48.02390 176.27797 40018 ft 444 kts 252°
2026-05-08 01:30 47.99976 176.19302 40012 ft 444 kts 252°
2026-05-08 01:30 47.97572 176.10873 40019 ft 444 kts 252°
2026-05-08 01:31 47.95147 176.02398 40017 ft 444 kts 252°
2026-05-08 01:31 47.92717 175.93937 40013 ft 443 kts 252°
2026-05-08 01:32 47.90282 175.85491 40015 ft 443 kts 252°
2026-05-08 01:32 47.87847 175.77069 40000 ft 442 kts 252°
2026-05-08 01:33 47.85409 175.68674 40020 ft 440 kts 252°
2026-05-08 01:33 47.82976 175.60317 40005 ft 440 kts 252°
2026-05-08 01:34 47.80536 175.51965 40006 ft 440 kts 252°
2026-05-08 01:34 47.78091 175.43625 40016 ft 440 kts 252°
2026-05-08 01:35 47.75657 175.35352 40009 ft 440 kts 252°
2026-05-08 01:35 47.73189 175.26994 40004 ft 438 kts 252°
2026-05-08 01:36 47.70736 175.18711 40008 ft 438 kts 252°
2026-05-08 01:36 47.68295 175.10497 40003 ft 437 kts 252°
2026-05-08 01:37 47.65836 175.02251 40007 ft 437 kts 252°
2026-05-08 01:37 47.63371 174.94015 39994 ft 436 kts 252°
2026-05-08 01:38 47.60908 174.85813 40002 ft 435 kts 252°
2026-05-08 01:38 47.58444 174.77630 40000 ft 435 kts 252°
2026-05-08 01:39 47.55972 174.69447 40001 ft 435 kts 252°
2026-05-08 01:39 47.53497 174.61280 39999 ft 435 kts 252°
2026-05-08 01:40 47.51014 174.53122 39989 ft 434 kts 252°
2026-05-08 01:40 47.48548 174.45043 40002 ft 433 kts 252°
2026-05-08 01:41 47.46066 174.36933 39998 ft 433 kts 252°
2026-05-08 01:41 47.43577 174.28833 39994 ft 432 kts 253°
2026-05-08 01:42 47.41092 174.20766 39991 ft 432 kts 253°
2026-05-08 01:42 47.38599 174.12705 39991 ft 430 kts 253°
2026-05-08 01:43 47.36110 174.04684 39991 ft 429 kts 253°
2026-05-08 01:43 47.33622 173.96683 39985 ft 429 kts 253°
2026-05-08 01:44 47.31131 173.88695 39982 ft 429 kts 253°
2026-05-08 01:44 47.28650 173.80772 39985 ft 429 kts 253°
2026-05-08 01:45 47.26145 173.72801 39981 ft 426 kts 253°
2026-05-08 01:45 47.23653 173.64899 39981 ft 424 kts 253°
2026-05-08 01:46 47.21167 173.57027 39985 ft 424 kts 253°
2026-05-08 01:46 47.18674 173.49161 39980 ft 423 kts 254°
2026-05-08 01:47 47.16201 173.41384 39983 ft 422 kts 254°
2026-05-08 01:47 47.13712 173.33590 39981 ft 419 kts 254°
2026-05-08 01:48 47.10002 173.22004 39976 ft 417 kts 254°
2026-05-08 01:48 47.07530 173.14306 39977 ft 417 kts 254°
2026-05-08 01:49 47.05048 173.06604 39969 ft 417 kts 254°
2026-05-08 01:49 47.02563 172.98918 39961 ft 417 kts 254°
2026-05-08 01:50 47.00081 172.91273 39972 ft 414 kts 254°
2026-05-08 01:50 46.97620 172.83706 39970 ft 414 kts 254°
2026-05-08 01:51 46.95140 172.76098 39969 ft 413 kts 254°
2026-05-08 01:51 46.92657 172.68508 39967 ft 413 kts 254°
2026-05-08 01:52 46.90170 172.60929 39952 ft 413 kts 254°
2026-05-08 01:52 46.87683 172.53377 39966 ft 411 kts 254°
2026-05-08 01:53 46.85201 172.45855 39960 ft 411 kts 254°
2026-05-08 01:53 46.82713 172.38339 39960 ft 411 kts 254°
2026-05-08 01:54 46.80220 172.30827 39957 ft 411 kts 254°
2026-05-08 01:54 46.77720 172.23317 39958 ft 411 kts 254°
2026-05-08 01:55 46.75216 172.15820 39957 ft 411 kts 254°
2026-05-08 01:55 46.72724 172.08379 39957 ft 411 kts 254°
2026-05-08 01:56 46.70210 172.00893 39956 ft 411 kts 254°
2026-05-08 01:56 46.67691 171.93417 39960 ft 411 kts 254°
2026-05-08 01:57 46.65164 171.85942 39953 ft 411 kts 254°
2026-05-08 01:57 46.62635 171.78479 39956 ft 411 kts 254°
2026-05-08 01:58 46.60104 171.71027 39954 ft 410 kts 254°
2026-05-08 01:58 46.57571 171.63592 39964 ft 411 kts 253°
2026-05-08 01:59 46.55031 171.56154 39961 ft 410 kts 253°
2026-05-08 01:59 46.52500 171.48769 39949 ft 410 kts 253°
2026-05-08 02:00 46.49956 171.41366 39963 ft 410 kts 253°
2026-05-08 02:00 46.47405 171.33963 39961 ft 410 kts 253°
2026-05-08 02:01 46.44854 171.26578 39963 ft 410 kts 253°
2026-05-08 02:01 46.42295 171.19191 39952 ft 410 kts 253°
2026-05-08 02:02 46.39725 171.11792 39948 ft 411 kts 253°
2026-05-08 02:02 46.37146 171.04392 39962 ft 411 kts 253°
2026-05-08 02:03 46.34584 170.97063 39970 ft 411 kts 253°
2026-05-08 02:03 46.31998 170.89682 39957 ft 411 kts 253°
2026-05-08 02:04 46.29409 170.82313 39956 ft 411 kts 253°
2026-05-08 02:04 46.26816 170.74954 39958 ft 411 kts 253°
2026-05-08 02:05 46.24220 170.67609 39961 ft 409 kts 253°
2026-05-08 02:05 46.21625 170.60282 39966 ft 409 kts 253°
2026-05-08 02:06 46.19028 170.52972 39966 ft 409 kts 253°
2026-05-08 02:06 46.16444 170.45717 39953 ft 409 kts 253°
2026-05-08 02:07 46.13833 170.38403 39964 ft 410 kts 253°
2026-05-08 02:07 46.11218 170.31107 39968 ft 409 kts 253°
2026-05-08 02:08 46.08599 170.23815 39963 ft 409 kts 253°
2026-05-08 02:08 46.05978 170.16536 39971 ft 409 kts 253°
2026-05-08 02:09 46.03354 170.09270 39968 ft 409 kts 253°
2026-05-08 02:09 46.00742 170.02056 39967 ft 409 kts 252°
2026-05-08 02:10 45.98174 169.94799 39963 ft 405 kts 254°
2026-05-08 02:10 45.95770 169.87481 39972 ft 404 kts 255°
2026-05-08 02:11 45.93375 169.80164 39970 ft 405 kts 254°
2026-05-08 02:11 45.90950 169.72865 39971 ft 405 kts 254°
2026-05-08 02:12 45.88503 169.65570 39976 ft 406 kts 254°
2026-05-08 02:12 45.86048 169.58285 39975 ft 405 kts 254°
2026-05-08 02:13 45.83588 169.51003 39981 ft 405 kts 254°
2026-05-08 02:13 45.81127 169.43733 39980 ft 405 kts 254°
2026-05-08 02:14 45.78677 169.36515 39976 ft 406 kts 254°
2026-05-08 02:14 45.76206 169.29256 39973 ft 405 kts 253°
2026-05-08 02:15 45.73734 169.22015 39979 ft 404 kts 253°
2026-05-08 02:15 45.71258 169.14778 39979 ft 404 kts 253°
2026-05-08 02:16 45.68778 169.07551 39979 ft 405 kts 253°
2026-05-08 02:16 45.66712 169.01544 39979 ft 405 kts 253°
2026-05-08 02:17 45.63817 168.93151 39976 ft 404 kts 253°
2026-05-08 02:17 45.61733 168.87126 39983 ft 404 kts 253°
2026-05-08 02:18 45.59250 168.79966 39982 ft 405 kts 253°
2026-05-08 02:18 45.56743 168.72755 39982 ft 405 kts 253°
2026-05-08 02:19 45.54231 168.65552 39982 ft 405 kts 253°
2026-05-08 02:19 45.51715 168.58356 39990 ft 405 kts 253°
2026-05-08 02:20 45.49192 168.51159 39987 ft 405 kts 253°
2026-05-08 02:20 45.46667 168.43973 39987 ft 405 kts 253°
2026-05-08 02:21 45.44153 168.36841 39988 ft 406 kts 253°
2026-05-08 02:21 45.41602 168.29618 39972 ft 406 kts 253°
2026-05-08 02:22 45.39076 168.22490 39993 ft 405 kts 252°
2026-05-08 02:22 45.36531 168.15327 39990 ft 405 kts 252°
2026-05-08 02:23 45.33988 168.08185 39991 ft 405 kts 252°
2026-05-08 02:23 45.31452 168.01078 39987 ft 406 kts 252°
2026-05-08 02:24 45.28888 167.93916 39980 ft 406 kts 252°
2026-05-08 02:24 45.26322 167.86773 39993 ft 405 kts 252°
2026-05-08 02:25 45.23756 167.79646 39998 ft 405 kts 252°
2026-05-08 02:25 45.21198 167.72557 39992 ft 405 kts 252°
2026-05-08 02:26 45.18623 167.65440 39992 ft 405 kts 252°
2026-05-08 02:26 45.16041 167.58323 39996 ft 405 kts 252°
2026-05-08 02:27 45.13458 167.51221 40001 ft 405 kts 251°
2026-05-08 02:27 45.10871 167.44128 40000 ft 405 kts 251°
2026-05-08 02:28 45.08280 167.37042 40001 ft 405 kts 251°
2026-05-08 02:28 45.05700 167.30004 39998 ft 406 kts 251°
2026-05-08 02:29 45.03094 167.22907 40002 ft 407 kts 251°
2026-05-08 02:29 45.00478 167.15810 40004 ft 407 kts 251°
2026-05-08 02:30 44.97857 167.08718 40005 ft 407 kts 251°
2026-05-08 02:30 44.95232 167.01633 40010 ft 407 kts 251°
2026-05-08 02:31 44.92602 166.94551 40011 ft 407 kts 251°
2026-05-08 02:31 44.89968 166.87474 40006 ft 407 kts 250°
2026-05-08 02:32 44.87325 166.80395 40007 ft 407 kts 250°
2026-05-08 02:32 44.84697 166.73375 40006 ft 407 kts 250°
2026-05-08 02:33 44.82047 166.66311 40014 ft 407 kts 250°
2026-05-08 02:33 44.79392 166.59252 39999 ft 407 kts 250°
2026-05-08 02:34 44.76733 166.52198 40012 ft 409 kts 250°
2026-05-08 02:34 44.74062 166.45132 40010 ft 409 kts 250°
2026-05-08 02:35 44.71383 166.38067 40018 ft 409 kts 250°
2026-05-08 02:35 44.68715 166.31047 40016 ft 409 kts 250°
2026-05-08 02:36 44.66026 166.23989 40013 ft 410 kts 249°
2026-05-08 02:36 44.63333 166.16938 40017 ft 410 kts 249°
2026-05-08 02:37 44.60632 166.09885 40023 ft 410 kts 249°
2026-05-08 02:37 44.57931 166.02851 40023 ft 410 kts 249°
2026-05-08 02:38 44.55223 165.95814 40023 ft 410 kts 249°
2026-05-08 02:38 44.52530 165.88832 40025 ft 410 kts 249°
2026-05-08 02:39 44.49810 165.81800 40015 ft 410 kts 249°
2026-05-08 02:39 44.47082 165.74765 40028 ft 411 kts 249°
2026-05-08 02:40 44.44345 165.67725 40026 ft 412 kts 249°
2026-05-08 02:40 44.41604 165.60693 40031 ft 412 kts 249°
2026-05-08 02:41 44.38855 165.53657 40029 ft 412 kts 248°
2026-05-08 02:41 44.36098 165.46618 40031 ft 413 kts 248°
2026-05-08 02:42 44.33352 165.39626 40035 ft 413 kts 248°
2026-05-08 02:42 44.30583 165.32593 40035 ft 413 kts 248°
2026-05-08 02:43 44.27813 165.25574 40032 ft 413 kts 248°
2026-05-08 02:43 44.25038 165.18560 40038 ft 413 kts 248°
2026-05-08 02:44 44.22258 165.11551 40037 ft 413 kts 248°
2026-05-08 02:44 44.19472 165.04545 40036 ft 413 kts 248°
2026-05-08 02:45 44.16704 164.97599 40024 ft 413 kts 248°
2026-05-08 02:45 44.13910 164.90607 40040 ft 413 kts 248°
2026-05-08 02:46 44.11112 164.83622 40037 ft 413 kts 248°
2026-05-08 02:46 44.08309 164.76641 40037 ft 413 kts 248°
2026-05-08 02:47 44.05503 164.69670 40037 ft 413 kts 248°
2026-05-08 02:47 44.02693 164.62706 40036 ft 413 kts 248°
2026-05-08 02:48 43.99900 164.55802 40041 ft 413 kts 248°
2026-05-08 02:48 43.97080 164.48846 40039 ft 413 kts 248°
2026-05-08 02:49 43.94255 164.41897 40037 ft 413 kts 248°
2026-05-08 02:49 43.91428 164.34959 40021 ft 413 kts 247°
2026-05-08 02:50 43.88594 164.28020 40042 ft 414 kts 247°
2026-05-08 02:50 43.85750 164.21078 40042 ft 414 kts 247°
2026-05-08 02:51 43.82921 164.14186 40042 ft 414 kts 247°
2026-05-08 02:51 43.80071 164.07259 40045 ft 414 kts 247°
2026-05-08 02:52 43.77215 164.00335 40032 ft 414 kts 247°
2026-05-08 02:52 43.74357 163.93423 40045 ft 414 kts 247°
2026-05-08 02:53 43.71492 163.86511 40045 ft 414 kts 247°
2026-05-08 02:53 43.68626 163.79612 40045 ft 414 kts 246°
2026-05-08 02:54 43.65756 163.72721 40051 ft 414 kts 246°
2026-05-08 02:54 43.62899 163.65876 40050 ft 414 kts 246°
2026-05-08 02:55 43.58568 163.55529 40048 ft 415 kts 246°
2026-05-08 02:56 43.55670 163.48630 40049 ft 416 kts 246°
2026-05-08 02:56 43.52764 163.41727 40048 ft 416 kts 246°
2026-05-08 02:57 43.49873 163.34877 40054 ft 416 kts 246°
2026-05-08 02:57 43.46960 163.27989 40045 ft 416 kts 246°
2026-05-08 02:58 43.44043 163.21109 40056 ft 416 kts 246°
2026-05-08 02:58 43.41120 163.14232 40052 ft 416 kts 246°
2026-05-08 02:59 43.38196 163.07369 40052 ft 416 kts 246°
2026-05-08 02:59 43.35265 163.00503 40052 ft 416 kts 246°
2026-05-08 03:00 43.32330 162.93646 40028 ft 416 kts 245°
2026-05-08 03:00 43.29387 162.86785 40056 ft 417 kts 245°
2026-05-08 03:01 43.26436 162.79923 40057 ft 418 kts 245°
2026-05-08 03:01 43.23479 162.73064 40056 ft 418 kts 245°
2026-05-08 03:02 43.20536 162.66253 40054 ft 418 kts 245°
2026-05-08 03:02 43.17570 162.59405 40041 ft 418 kts 245°
2026-05-08 03:03 43.14599 162.52560 40052 ft 418 kts 245°
2026-05-08 03:03 43.11627 162.45731 40058 ft 418 kts 245°
2026-05-08 03:04 43.08645 162.38893 40055 ft 418 kts 245°
2026-05-08 03:04 43.05664 162.32074 40058 ft 418 kts 245°
2026-05-08 03:05 43.02676 162.25256 40041 ft 418 kts 245°
2026-05-08 03:05 42.99685 162.18444 40050 ft 418 kts 244°
2026-05-08 03:06 42.96690 162.11640 40051 ft 418 kts 244°
2026-05-08 03:06 42.93687 162.04835 40055 ft 418 kts 244°
2026-05-08 03:07 42.90702 161.98087 40054 ft 418 kts 244°
2026-05-08 03:07 42.87691 161.91293 40053 ft 418 kts 244°
2026-05-08 03:08 42.85184 161.85650 40049 ft 418 kts 244°
2026-05-08 03:08 42.82163 161.78865 40052 ft 418 kts 244°
2026-05-08 03:09 42.79139 161.72087 40048 ft 418 kts 244°
2026-05-08 03:09 42.76111 161.65316 40048 ft 418 kts 244°
2026-05-08 03:10 42.73080 161.58554 40045 ft 418 kts 244°
2026-05-08 03:10 42.70046 161.51801 40057 ft 419 kts 244°
2026-05-08 03:11 42.67020 161.45079 40057 ft 420 kts 244°
2026-05-08 03:11 42.63966 161.38313 40040 ft 420 kts 244°
2026-05-08 03:12 42.60908 161.31553 40054 ft 420 kts 244°
2026-05-08 03:12 42.57845 161.24799 40056 ft 420 kts 244°
2026-05-08 03:13 42.54780 161.18053 40051 ft 420 kts 243°
2026-05-08 03:13 42.51711 161.11315 40048 ft 420 kts 243°
2026-05-08 03:14 42.48640 161.04586 40051 ft 420 kts 243°
2026-05-08 03:14 42.45562 160.97859 40048 ft 420 kts 243°
2026-05-08 03:15 42.42480 160.91139 40047 ft 420 kts 243°
2026-05-08 03:15 42.39411 160.84459 40033 ft 421 kts 243°
2026-05-08 03:16 42.36309 160.77723 40044 ft 423 kts 243°
2026-05-08 03:16 42.33193 160.70974 40045 ft 423 kts 243°
2026-05-08 03:17 42.30074 160.64235 40044 ft 423 kts 243°
2026-05-08 03:17 42.26950 160.57500 40047 ft 423 kts 243°
2026-05-08 03:18 42.23822 160.50768 40038 ft 423 kts 243°
2026-05-08 03:18 42.20686 160.44036 40045 ft 424 kts 243°
2026-05-08 03:19 42.17546 160.37311 40038 ft 424 kts 242°
2026-05-08 03:19 42.14403 160.30594 40042 ft 424 kts 242°
2026-05-08 03:20 42.11255 160.23883 40038 ft 424 kts 242°
2026-05-08 03:20 42.08123 160.17216 40021 ft 424 kts 242°
2026-05-08 03:21 42.04954 160.10487 40040 ft 426 kts 242°
2026-05-08 03:21 42.01782 160.03758 40035 ft 426 kts 242°
2026-05-08 03:22 41.99294 159.96627 40037 ft 420 kts 253°
2026-05-08 03:22 41.97498 159.89162 40037 ft 419 kts 255°
2026-05-08 03:23 41.95816 159.81643 40037 ft 420 kts 255°
2026-05-08 03:23 41.94133 159.74126 40034 ft 420 kts 255°
2026-05-08 03:24 41.92429 159.66614 40032 ft 420 kts 255°
2026-05-08 03:24 41.90710 159.59104 40034 ft 420 kts 255°
2026-05-08 03:25 41.88997 159.51655 40026 ft 420 kts 255°
2026-05-08 03:25 41.87266 159.44144 40029 ft 421 kts 255°
2026-05-08 03:26 41.85531 159.36645 40028 ft 421 kts 255°
2026-05-08 03:26 41.83789 159.29138 40029 ft 421 kts 255°
2026-05-08 03:27 41.82044 159.21640 40026 ft 421 kts 255°
2026-05-08 03:27 41.80304 159.14191 40027 ft 421 kts 254°
2026-05-08 03:28 41.78549 159.06705 40030 ft 421 kts 254°
2026-05-08 03:28 41.76789 158.99218 40024 ft 421 kts 254°
2026-05-08 03:29 41.75024 158.91736 40025 ft 421 kts 254°
2026-05-08 03:29 41.73253 158.84256 40022 ft 421 kts 254°
2026-05-08 03:30 41.70592 158.73060 40024 ft 421 kts 254°
2026-05-08 03:31 41.67028 158.58150 40014 ft 421 kts 254°
2026-05-08 03:32 41.64341 158.46973 40016 ft 421 kts 254°
2026-05-08 03:32 41.62543 158.39524 40010 ft 421 kts 254°
2026-05-08 03:33 41.60752 158.32129 40008 ft 421 kts 254°
2026-05-08 03:33 41.58945 158.24690 40010 ft 421 kts 254°
2026-05-08 03:34 41.57133 158.17255 40008 ft 421 kts 254°
2026-05-08 03:34 41.55319 158.09835 40010 ft 420 kts 253°
2026-05-08 03:35 41.53499 158.02414 40005 ft 420 kts 253°
2026-05-08 03:35 41.51673 157.94995 40004 ft 420 kts 253°
2026-05-08 03:36 41.49843 157.87580 40001 ft 420 kts 253°
2026-05-08 03:36 41.48023 157.80229 39998 ft 420 kts 253°
2026-05-08 03:37 41.46188 157.72841 39995 ft 419 kts 253°
2026-05-08 03:37 41.44347 157.65454 39996 ft 419 kts 253°
2026-05-08 03:38 41.42504 157.58079 39996 ft 419 kts 253°
2026-05-08 03:38 41.40656 157.50708 39992 ft 419 kts 253°
2026-05-08 03:39 41.38806 157.43355 39994 ft 418 kts 253°
2026-05-08 03:39 41.36952 157.36007 39985 ft 418 kts 253°
2026-05-08 03:40 41.35104 157.28703 39985 ft 418 kts 253°
2026-05-08 03:40 41.33242 157.21368 39980 ft 418 kts 253°
2026-05-08 03:41 41.31379 157.14049 39977 ft 417 kts 253°
2026-05-08 03:41 41.29515 157.06754 39977 ft 417 kts 253°
2026-05-08 03:42 41.27646 156.99458 39972 ft 417 kts 252°
2026-05-08 03:42 41.25773 156.92170 39971 ft 417 kts 252°
2026-05-08 03:43 41.23897 156.84889 39966 ft 416 kts 252°
2026-05-08 03:43 41.22027 156.77659 39949 ft 416 kts 251°
2026-05-08 03:44 41.20140 156.70388 39959 ft 417 kts 251°
2026-05-08 03:44 41.18246 156.63102 39952 ft 417 kts 251°
2026-05-08 03:45 41.16348 156.55821 39954 ft 417 kts 251°
2026-05-08 03:45 41.14445 156.48545 39950 ft 417 kts 251°
2026-05-08 03:46 41.12538 156.41279 39948 ft 417 kts 251°
2026-05-08 03:46 41.10628 156.34023 39945 ft 417 kts 251°
2026-05-08 03:47 41.08712 156.26766 39941 ft 417 kts 251°
2026-05-08 03:47 41.06790 156.19506 39938 ft 417 kts 251°
2026-05-08 03:48 41.04865 156.12256 39931 ft 417 kts 251°
2026-05-08 03:48 41.02949 156.05062 39932 ft 417 kts 251°
2026-05-08 03:49 41.01014 155.97818 39923 ft 417 kts 251°
2026-05-08 03:49 40.99072 155.90567 39943 ft 417 kts 251°
2026-05-08 03:50 40.97126 155.83325 39922 ft 418 kts 251°
2026-05-08 03:50 40.95173 155.76078 39921 ft 417 kts 251°
2026-05-08 03:51 40.93233 155.68900 39909 ft 417 kts 251°
2026-05-08 03:51 40.91274 155.61674 39915 ft 418 kts 251°
2026-05-08 03:52 40.89306 155.54429 39905 ft 419 kts 250°
2026-05-08 03:52 40.87329 155.47175 39897 ft 419 kts 250°
2026-05-08 03:53 40.85348 155.39928 39902 ft 419 kts 250°
2026-05-08 03:53 40.83364 155.32692 39910 ft 419 kts 250°
2026-05-08 03:54 40.81373 155.25453 39894 ft 419 kts 250°
2026-05-08 03:54 40.79378 155.18218 39886 ft 419 kts 250°
2026-05-08 03:55 40.77377 155.10980 39891 ft 419 kts 250°
2026-05-08 03:55 40.75711 155.04974 39888 ft 420 kts 250°
2026-05-08 03:56 40.73702 154.97745 39883 ft 420 kts 250°
2026-05-08 03:56 40.71684 154.90507 39881 ft 421 kts 250°
2026-05-08 03:57 40.69659 154.83263 39873 ft 421 kts 250°
2026-05-08 03:57 40.67627 154.76018 39874 ft 421 kts 250°
2026-05-08 03:58 40.65605 154.68826 39865 ft 421 kts 250°
2026-05-08 03:58 40.63564 154.61586 39873 ft 422 kts 249°
2026-05-08 03:59 40.61513 154.54331 39869 ft 422 kts 249°
2026-05-08 03:59 40.59459 154.47090 39861 ft 422 kts 249°
2026-05-08 04:00 40.57401 154.39854 39856 ft 422 kts 249°
2026-05-08 04:00 40.55336 154.32612 39859 ft 423 kts 249°
2026-05-08 04:01 40.53278 154.25413 39865 ft 423 kts 249°
2026-05-08 04:01 40.51200 154.18169 39857 ft 424 kts 249°
2026-05-08 04:02 40.49119 154.10931 39844 ft 424 kts 249°
2026-05-08 04:02 40.47032 154.03695 39834 ft 424 kts 249°
2026-05-08 04:03 40.44934 153.96437 39847 ft 425 kts 249°
2026-05-08 04:03 40.41776 153.85556 39835 ft 425 kts 249°
2026-05-08 04:04 40.39665 153.78304 39827 ft 425 kts 249°
2026-05-08 04:04 40.37547 153.71051 39828 ft 426 kts 249°
2026-05-08 04:05 40.35420 153.63786 39822 ft 427 kts 249°
2026-05-08 04:05 40.33284 153.56515 39819 ft 428 kts 249°
2026-05-08 04:06 40.31145 153.49247 39823 ft 427 kts 249°
2026-05-08 04:06 40.29013 153.42026 39820 ft 428 kts 248°
2026-05-08 04:07 40.26858 153.34745 39819 ft 430 kts 248°
2026-05-08 04:07 40.24691 153.27448 39819 ft 430 kts 248°
2026-05-08 04:08 40.22519 153.20151 39825 ft 430 kts 248°
2026-05-08 04:08 40.20343 153.12861 39810 ft 430 kts 248°
2026-05-08 04:09 40.18160 153.05568 39813 ft 431 kts 248°
2026-05-08 04:09 40.15970 152.98273 39812 ft 431 kts 248°
2026-05-08 04:10 40.13775 152.90980 39810 ft 431 kts 248°
2026-05-08 04:10 40.11575 152.83688 39811 ft 431 kts 248°
2026-05-08 04:11 40.09383 152.76444 39809 ft 431 kts 248°
2026-05-08 04:11 40.07171 152.69157 39811 ft 431 kts 248°
2026-05-08 04:12 40.04957 152.61877 39818 ft 431 kts 248°
2026-05-08 04:12 40.02819 152.54869 39811 ft 431 kts 248°
2026-05-08 04:13 40.00596 152.47602 39813 ft 431 kts 248°
2026-05-08 04:13 39.98365 152.40326 39817 ft 432 kts 248°
2026-05-08 04:14 39.96131 152.33061 39806 ft 432 kts 248°
2026-05-08 04:14 39.93890 152.25794 39820 ft 432 kts 248°
2026-05-08 04:15 39.91645 152.18532 39808 ft 432 kts 248°
2026-05-08 04:15 39.89412 152.11328 39820 ft 432 kts 248°
2026-05-08 04:16 39.87158 152.04079 39826 ft 432 kts 247°
2026-05-08 04:16 39.84897 151.96821 39808 ft 432 kts 247°
2026-05-08 04:17 39.82634 151.89580 39817 ft 432 kts 247°
2026-05-08 04:17 39.80368 151.82349 39814 ft 432 kts 247°
2026-05-08 04:18 39.78096 151.75116 39821 ft 432 kts 247°
2026-05-08 04:18 39.75822 151.67896 39820 ft 432 kts 247°
2026-05-08 04:19 39.73557 151.60721 39819 ft 432 kts 247°
2026-05-08 04:19 39.71273 151.53510 39821 ft 432 kts 247°
2026-05-08 04:20 39.68983 151.46295 39829 ft 432 kts 247°
2026-05-08 04:20 39.66688 151.39083 39818 ft 432 kts 247°
2026-05-08 04:21 39.64389 151.31880 39828 ft 432 kts 247°
2026-05-08 04:21 39.62099 151.24720 39828 ft 432 kts 247°
2026-05-08 04:22 39.59792 151.17527 39831 ft 432 kts 247°
2026-05-08 04:22 39.57479 151.10336 39824 ft 432 kts 247°
2026-05-08 04:23 39.55160 151.03143 39841 ft 432 kts 247°
2026-05-08 04:23 39.52838 150.95960 39840 ft 432 kts 247°
2026-05-08 04:24 39.50512 150.88782 39827 ft 432 kts 247°
2026-05-08 04:24 39.48181 150.81608 39831 ft 432 kts 246°
2026-05-08 04:25 39.45846 150.74438 39847 ft 432 kts 247°
2026-05-08 04:25 39.43506 150.67274 39835 ft 432 kts 246°
2026-05-08 04:26 39.41163 150.60118 39838 ft 432 kts 246°
2026-05-08 04:26 39.38832 150.53018 39838 ft 432 kts 246°
2026-05-08 04:27 39.36479 150.45868 39850 ft 432 kts 246°
2026-05-08 04:27 39.34123 150.38726 39849 ft 432 kts 246°
2026-05-08 04:28 39.31764 150.31594 39840 ft 432 kts 246°
2026-05-08 04:28 39.29401 150.24466 39843 ft 432 kts 246°
2026-05-08 04:29 39.27033 150.17341 39842 ft 432 kts 246°
2026-05-08 04:29 39.24661 150.10222 39853 ft 432 kts 246°
2026-05-08 04:30 39.22284 150.03108 39852 ft 432 kts 246°
2026-05-08 04:30 39.19903 149.95998 39838 ft 432 kts 246°
2026-05-08 04:31 39.17518 149.88896 39855 ft 432 kts 246°
2026-05-08 04:31 39.15015 149.81867 39858 ft 431 kts 242°
2026-05-08 04:32 39.12119 149.75098 39839 ft 431 kts 241°
2026-05-08 04:32 39.09153 149.68392 39858 ft 431 kts 240°
2026-05-08 04:33 39.06191 149.61738 39854 ft 431 kts 240°
2026-05-08 04:33 39.03213 149.55045 39848 ft 431 kts 240°
2026-05-08 04:34 39.00237 149.48356 39861 ft 430 kts 240°
2026-05-08 04:34 38.97261 149.41678 39843 ft 431 kts 240°
2026-05-08 04:35 38.94279 149.35002 39846 ft 431 kts 240°
2026-05-08 04:35 38.91296 149.28338 39847 ft 431 kts 240°
2026-05-08 04:36 38.88308 149.21677 39850 ft 431 kts 240°
2026-05-08 04:36 38.85316 149.15021 39860 ft 431 kts 240°
2026-05-08 04:37 38.82321 149.08372 39857 ft 430 kts 240°
2026-05-08 04:37 38.79321 149.01726 39859 ft 430 kts 240°
2026-05-08 04:38 38.76319 148.95090 39859 ft 430 kts 240°
2026-05-08 04:38 38.73321 148.88475 39856 ft 429 kts 240°
2026-05-08 04:39 38.70335 148.81901 39856 ft 429 kts 240°
2026-05-08 04:39 38.67325 148.75288 39854 ft 429 kts 240°
2026-05-08 04:40 38.64315 148.68691 39848 ft 429 kts 240°
2026-05-08 04:40 38.61305 148.62105 39848 ft 429 kts 240°
2026-05-08 04:41 38.58291 148.55524 39848 ft 428 kts 240°
2026-05-08 04:41 38.55294 148.48995 39847 ft 428 kts 240°
2026-05-08 04:42 38.52276 148.42433 39845 ft 428 kts 240°
2026-05-08 04:42 38.49261 148.35890 39846 ft 427 kts 240°
2026-05-08 04:43 38.46242 148.29353 39846 ft 427 kts 240°
2026-05-08 04:43 38.43731 148.23925 39833 ft 427 kts 240°
2026-05-08 04:44 38.40704 148.17394 39850 ft 427 kts 240°
2026-05-08 04:44 38.37676 148.10875 39830 ft 427 kts 240°
2026-05-08 04:45 38.34649 148.04371 39830 ft 426 kts 240°
2026-05-08 04:45 38.31639 147.97916 39833 ft 426 kts 240°
2026-05-08 04:46 38.28609 147.91433 39850 ft 426 kts 240°
2026-05-08 04:46 38.25573 147.84948 39845 ft 426 kts 240°
2026-05-08 04:47 38.22536 147.78476 39837 ft 426 kts 240°
2026-05-08 04:47 38.19500 147.72017 39832 ft 426 kts 240°
2026-05-08 04:48 38.16457 147.65556 39842 ft 426 kts 240°
2026-05-08 04:48 38.13412 147.59106 39830 ft 426 kts 240°
2026-05-08 04:49 38.10366 147.52665 39834 ft 425 kts 240°
2026-05-08 04:49 38.07315 147.46227 39837 ft 425 kts 239°
2026-05-08 04:50 38.04263 147.39798 39827 ft 425 kts 239°
2026-05-08 04:50 38.01228 147.33418 39820 ft 425 kts 239°
2026-05-08 04:51 37.98168 147.27000 39819 ft 425 kts 239°
2026-05-08 04:51 37.95105 147.20587 39824 ft 425 kts 239°
2026-05-08 04:52 37.92042 147.14187 39821 ft 425 kts 239°
2026-05-08 04:52 37.88971 147.07781 39821 ft 425 kts 239°
2026-05-08 04:53 37.85896 147.01381 39833 ft 425 kts 239°
2026-05-08 04:53 37.82815 146.94982 39827 ft 426 kts 239°
2026-05-08 04:54 37.79730 146.88587 39828 ft 426 kts 239°
2026-05-08 04:54 37.76640 146.82193 39818 ft 426 kts 239°
2026-05-08 04:55 37.73564 146.75841 39819 ft 427 kts 239°
2026-05-08 04:55 37.70458 146.69437 39824 ft 427 kts 239°
2026-05-08 04:56 37.67346 146.63036 39821 ft 427 kts 239°
2026-05-08 04:56 37.64237 146.56653 39816 ft 427 kts 239°
2026-05-08 04:57 37.61117 146.50259 39814 ft 427 kts 239°
2026-05-08 04:57 37.58018 146.43922 39817 ft 427 kts 239°
2026-05-08 04:58 37.54894 146.37545 39811 ft 427 kts 239°
2026-05-08 04:58 37.51768 146.31176 39814 ft 427 kts 239°
2026-05-08 04:59 37.48637 146.24811 39806 ft 428 kts 239°
2026-05-08 04:59 37.45498 146.18440 39804 ft 428 kts 239°
2026-05-08 05:00 37.42356 146.12076 39810 ft 428 kts 239°
2026-05-08 05:00 37.39209 146.05713 39805 ft 428 kts 239°
2026-05-08 05:01 37.36066 145.99373 39805 ft 426 kts 239°
2026-05-08 05:01 37.32930 145.93056 39810 ft 426 kts 239°
2026-05-08 05:02 37.29794 145.86753 39794 ft 425 kts 239°
2026-05-08 05:02 37.26673 145.80491 39802 ft 425 kts 239°
2026-05-08 05:03 37.23532 145.74202 39806 ft 424 kts 239°
2026-05-08 05:03 37.20459 145.67917 39810 ft 422 kts 242°
2026-05-08 05:04 37.18119 145.61177 39805 ft 422 kts 248°
2026-05-08 05:04 37.16051 145.54294 39799 ft 422 kts 249°
2026-05-08 05:05 37.14029 145.47400 39801 ft 420 kts 249°
2026-05-08 05:05 37.12006 145.40548 39798 ft 419 kts 249°
2026-05-08 05:06 37.09967 145.33706 39807 ft 419 kts 249°
2026-05-08 05:06 37.07923 145.26874 39802 ft 419 kts 249°
2026-05-08 05:07 37.05879 145.20061 39801 ft 417 kts 248°
2026-05-08 05:07 37.03849 145.13311 39802 ft 416 kts 248°
2026-05-08 05:08 37.01802 145.06521 39796 ft 416 kts 248°
2026-05-08 05:08 36.99754 144.99743 39803 ft 416 kts 248°
2026-05-08 05:09 36.97706 144.92977 39801 ft 416 kts 248°
2026-05-08 05:09 36.95654 144.86218 39807 ft 415 kts 248°
2026-05-08 05:10 36.92574 144.76103 39800 ft 415 kts 248°
2026-05-08 05:11 36.90531 144.69411 39798 ft 415 kts 248°
2026-05-08 05:11 36.88467 144.62673 39792 ft 415 kts 248°
2026-05-08 05:12 36.86400 144.55935 39796 ft 415 kts 248°
2026-05-08 05:12 36.84330 144.49208 39806 ft 415 kts 248°
2026-05-08 05:13 36.82261 144.42496 39792 ft 414 kts 247°
2026-05-08 05:13 36.80192 144.35799 39792 ft 413 kts 247°
2026-05-08 05:14 36.78122 144.29110 39791 ft 413 kts 247°
2026-05-08 05:14 36.76059 144.22475 39794 ft 413 kts 247°
2026-05-08 05:15 36.73978 144.15801 39794 ft 412 kts 247°
2026-05-08 05:15 36.71897 144.09140 39795 ft 412 kts 247°
2026-05-08 05:16 36.69815 144.02488 39789 ft 412 kts 247°
2026-05-08 05:16 36.67729 143.95837 39789 ft 412 kts 247°
2026-05-08 05:17 36.65638 143.89186 39791 ft 412 kts 247°
2026-05-08 05:17 36.63544 143.82542 39791 ft 412 kts 247°
2026-05-08 05:18 36.61442 143.75902 39790 ft 412 kts 247°
2026-05-08 05:18 36.59353 143.69304 39790 ft 413 kts 247°
2026-05-08 05:19 36.57243 143.62657 39787 ft 413 kts 247°
2026-05-08 05:19 36.55130 143.56016 39787 ft 413 kts 247°
2026-05-08 05:20 36.53013 143.49378 39785 ft 412 kts 247°
2026-05-08 05:20 36.50893 143.42749 39784 ft 412 kts 247°
2026-05-08 05:21 36.48783 143.36164 39785 ft 412 kts 247°
2026-05-08 05:21 36.46658 143.29550 39784 ft 412 kts 247°
2026-05-08 05:22 36.44530 143.22938 39782 ft 412 kts 247°
2026-05-08 05:22 36.42396 143.16324 39782 ft 412 kts 247°
2026-05-08 05:23 36.40258 143.09713 39782 ft 412 kts 247°
2026-05-08 05:23 36.38117 143.03109 39780 ft 412 kts 247°
2026-05-08 05:24 36.35973 142.96510 39778 ft 412 kts 247°
2026-05-08 05:24 36.33826 142.89914 39776 ft 412 kts 247°
2026-05-08 05:25 36.31674 142.83317 39771 ft 412 kts 247°
2026-05-08 05:25 36.29519 142.76729 39772 ft 412 kts 247°
2026-05-08 05:26 36.27362 142.70149 39770 ft 412 kts 247°
2026-05-08 05:26 36.25218 142.63620 39768 ft 412 kts 247°
2026-05-08 05:27 36.23055 142.57050 39760 ft 412 kts 247°
2026-05-08 05:27 36.20887 142.50481 39759 ft 412 kts 247°
2026-05-08 05:28 36.18718 142.43920 39763 ft 412 kts 247°
2026-05-08 05:28 36.16503 142.37391 39760 ft 411 kts 245°
2026-05-08 05:29 36.14148 142.30938 39758 ft 411 kts 245°
2026-05-08 05:29 36.11779 142.24495 39760 ft 411 kts 245°
2026-05-08 05:30 36.09429 142.18047 39761 ft 411 kts 245°
2026-05-08 05:30 36.07089 142.11600 39761 ft 411 kts 245°
2026-05-08 05:31 36.04758 142.05147 39761 ft 411 kts 246°
2026-05-08 05:31 36.02442 141.98691 39759 ft 411 kts 246°
2026-05-08 05:32 36.00123 141.92243 39757 ft 411 kts 246°
2026-05-08 05:32 35.97813 141.85843 39757 ft 411 kts 245°
2026-05-08 05:33 35.95608 141.79345 39758 ft 411 kts 251°
2026-05-08 05:33 35.94512 141.72423 39758 ft 414 kts 263°
2026-05-08 05:34 35.94407 141.65298 39754 ft 416 kts 266°